Wetterdaten: Sonntag, 26.06.2022
Datum Zeit Temp. Aussen Temp. o. S. Temp +5cm Feuchte Auss Luftdruck Regen Sonnenschein Regendauer Solar Windben Empfang
26.06.2022 00:00 19,4 C 18,9 C 15,6 C 88 % 1011,2 hPa 0,0 l/m 0 min 0 min 0 W/m 9,7 km/h (2 Bft) 97,87 %
26.06.2022 00:02 19,4 C 18,9 C 15,6 C 88 % 1011,3 hPa 0,0 l/m 0 min 0 min 0 W/m 6,4 km/h (2 Bft) 97,50 %
26.06.2022 00:04 19,4 C 18,3 C 15,6 C 88 % 1011,3 hPa 0,0 l/m 0 min 0 min 0 W/m 6,4 km/h (2 Bft) 97,83 %
26.06.2022 00:10 19,4 C 18,3 C 15,6 C 88 % 1011,4 hPa 0,0 l/m 0 min 0 min 0 W/m 3,2 km/h (1 Bft) 96,45 %
26.06.2022 00:12 19,3 C 18,3 C 15,6 C 88 % 1011,4 hPa 0,0 l/m 0 min 0 min 0 W/m 6,4 km/h (2 Bft) 95,74 %
26.06.2022 00:14 19,3 C 18,3 C 15,6 C 88 % 1011,4 hPa 0,0 l/m 0 min 0 min 0 W/m 3,2 km/h (1 Bft) 97,87 %
26.06.2022 00:16 19,3 C 18,3 C 15,0 C 89 % 1011,4 hPa 0,0 l/m 0 min 0 min 0 W/m 6,4 km/h (2 Bft) 97,87 %
26.06.2022 00:18 19,3 C 18,3 C 15,6 C 89 % 1011,4 hPa 0,0 l/m 0 min 0 min 0 W/m 6,4 km/h (2 Bft) 97,87 %
26.06.2022 00:20 19,3 C 18,3 C 15,6 C 89 % 1011,4 hPa 0,0 l/m 0 min 0 min 0 W/m 3,2 km/h (1 Bft) 97,83 %
26.06.2022 00:22 19,3 C 18,3 C 15,6 C 89 % 1011,5 hPa 0,0 l/m 0 min 0 min 0 W/m 3,2 km/h (1 Bft) 97,87 %
26.06.2022 00:24 19,3 C 18,3 C 15,6 C 89 % 1011,7 hPa 0,0 l/m 0 min 0 min 0 W/m 6,4 km/h (2 Bft) 97,87 %
26.06.2022 00:26 19,3 C 18,3 C 15,6 C 89 % 1011,9 hPa 0,0 l/m 0 min 0 min 0 W/m 6,4 km/h (2 Bft) 97,87 %
26.06.2022 00:28 19,2 C 18,3 C 15,6 C 89 % 1012,0 hPa 0,0 l/m 0 min 0 min 0 W/m 16,1 km/h (3 Bft) 97,87 %
26.06.2022 00:30 19,2 C 18,3 C 15,0 C 89 % 1012,0 hPa 0,0 l/m 0 min 0 min 0 W/m 12,9 km/h (3 Bft) 97,83 %
26.06.2022 00:32 19,2 C 18,3 C 15,0 C 89 % 1012,0 hPa 0,0 l/m 0 min 2 min 0 W/m 6,4 km/h (2 Bft) 97,87 %
26.06.2022 00:34 19,2 C 18,3 C 15,0 C 90 % 1012,1 hPa 0,0 l/m 0 min 2 min 0 W/m 16,1 km/h (3 Bft) 97,87 %
26.06.2022 00:36 19,2 C 17,8 C 14,4 C 90 % 1012,3 hPa 0,2 l/m 0 min 2 min 0 W/m 19,3 km/h (3 Bft) 97,87 %
26.06.2022 00:38 19,2 C 17,2 C 13,9 C 91 % 1012,3 hPa 0,4 l/m 0 min 2 min 0 W/m 12,9 km/h (3 Bft) 95,74 %
26.06.2022 00:40 19,1 C 17,2 C 13,9 C 91 % 1012,4 hPa 0,2 l/m 0 min 2 min 0 W/m 16,1 km/h (3 Bft) 97,87 %
26.06.2022 00:42 19,0 C 17,2 C 13,9 C 92 % 1012,4 hPa 0,0 l/m 0 min 2 min 0 W/m 12,9 km/h (3 Bft) 97,83 %
26.06.2022 00:44 18,9 C 17,2 C 13,9 C 92 % 1012,4 hPa 0,2 l/m 0 min 2 min 0 W/m 6,4 km/h (2 Bft) 97,87 %
26.06.2022 00:46 18,8 C 16,7 C 13,3 C 92 % 1012,4 hPa 0,4 l/m 0 min 2 min 0 W/m 9,7 km/h (2 Bft) 97,87 %
26.06.2022 00:48 18,8 C 16,7 C 13,9 C 93 % 1012,2 hPa 0,8 l/m 0 min 2 min 0 W/m 12,9 km/h (3 Bft) 100,00 %
26.06.2022 00:50 18,7 C 16,7 C 13,3 C 93 % 1012,2 hPa 0,2 l/m 0 min 2 min 0 W/m 12,9 km/h (3 Bft) 100,00 %
26.06.2022 00:52 18,6 C 16,7 C 13,3 C 93 % 1012,2 hPa 0,0 l/m 0 min 2 min 0 W/m 12,9 km/h (3 Bft) 100,00 %
26.06.2022 00:54 18,5 C 16,7 C 13,3 C 94 % 1012,3 hPa 0,2 l/m 0 min 2 min 0 W/m 16,1 km/h (3 Bft) 100,00 %
26.06.2022 00:56 18,4 C 16,7 C 13,3 C 94 % 1012,4 hPa 0,2 l/m 0 min 2 min 0 W/m 19,3 km/h (3 Bft) 100,00 %
26.06.2022 00:58 18,3 C 16,7 C 13,3 C 94 % 1012,5 hPa 0,4 l/m 0 min 2 min 0 W/m 19,3 km/h (3 Bft) 100,00 %
26.06.2022 01:00 18,3 C 16,7 C 13,3 C 94 % 1012,5 hPa 0,4 l/m 0 min 2 min 0 W/m 12,9 km/h (3 Bft) 100,00 %
26.06.2022 01:02 18,2 C 16,7 C 13,3 C 95 % 1012,6 hPa 0,2 l/m 0 min 2 min 0 W/m 12,9 km/h (3 Bft) 100,00 %
26.06.2022 01:04 18,2 C 16,7 C 13,3 C 95 % 1012,4 hPa 0,2 l/m 0 min 2 min 0 W/m 19,3 km/h (3 Bft) 100,00 %
26.06.2022 01:06 18,1 C 16,7 C 13,3 C 95 % 1012,0 hPa 0,0 l/m 0 min 2 min 0 W/m 16,1 km/h (3 Bft) 100,00 %
26.06.2022 01:08 18,0 C 16,7 C 13,3 C 95 % 1012,1 hPa 0,2 l/m 0 min 2 min 0 W/m 16,1 km/h (3 Bft) 100,00 %
26.06.2022 01:10 17,9 C 16,7 C 13,3 C 95 % 1012,3 hPa 0,0 l/m 0 min 2 min 0 W/m 12,9 km/h (3 Bft) 100,00 %
26.06.2022 01:12 17,9 C 16,7 C 13,3 C 95 % 1012,3 hPa 0,0 l/m 0 min 2 min 0 W/m 12,9 km/h (3 Bft) 100,00 %
26.06.2022 01:14 17,9 C 16,7 C 13,3 C 96 % 1012,3 hPa 0,0 l/m 0 min 2 min 0 W/m 16,1 km/h (3 Bft) 100,00 %
26.06.2022 01:16 17,8 C 16,7 C 13,3 C 96 % 1012,2 hPa 0,0 l/m 0 min 2 min 0 W/m 16,1 km/h (3 Bft) 95,74 %
26.06.2022 01:18 17,8 C 16,7 C 13,3 C 96 % 1012,4 hPa 0,2 l/m 0 min 2 min 0 W/m 9,7 km/h (2 Bft) 97,87 %
26.06.2022 01:20 17,8 C 16,7 C 13,3 C 96 % 1012,7 hPa 0,0 l/m 0 min 2 min 0 W/m 6,4 km/h (2 Bft) 97,87 %
26.06.2022 01:22 17,8 C 16,7 C 13,3 C 96 % 1012,8 hPa 0,2 l/m 0 min 2 min 0 W/m 6,4 km/h (2 Bft) 97,37 %
26.06.2022 01:24 17,8 C 16,7 C 13,3 C 96 % 1012,4 hPa 0,4 l/m 0 min 2 min 0 W/m 12,9 km/h (3 Bft) 93,88 %
26.06.2022 01:26 17,8 C 16,7 C 13,3 C 96 % 1011,9 hPa 0,2 l/m 0 min 2 min 0 W/m 19,3 km/h (3 Bft) 95,74 %
26.06.2022 01:28 17,8 C 16,1 C 13,3 C 96 % 1012,1 hPa 0,0 l/m 0 min 2 min 0 W/m 16,1 km/h (3 Bft) 95,74 %
26.06.2022 01:30 17,7 C 16,7 C 13,3 C 96 % 1012,3 hPa 0,0 l/m 0 min 2 min 0 W/m 9,7 km/h (2 Bft) 95,65 %
26.06.2022 01:32 17,7 C 16,7 C 13,3 C 96 % 1012,2 hPa 0,0 l/m 0 min 2 min 0 W/m 6,4 km/h (2 Bft) 93,62 %
26.06.2022 01:34 17,7 C 16,1 C 13,3 C 96 % 1012,3 hPa 0,0 l/m 0 min 2 min 0 W/m 12,9 km/h (3 Bft) 95,74 %
26.06.2022 01:36 17,7 C 16,1 C 13,3 C 96 % 1012,3 hPa 0,2 l/m 0 min 2 min 0 W/m 16,1 km/h (3 Bft) 91,49 %
26.06.2022 01:38 17,7 C 16,1 C 13,3 C 96 % 1012,2 hPa 0,0 l/m 0 min 2 min 0 W/m 6,4 km/h (2 Bft) 95,74 %
26.06.2022 01:40 17,6 C 16,1 C 13,3 C 96 % 1012,2 hPa 0,0 l/m 0 min 2 min 0 W/m 9,7 km/h (2 Bft) 95,74 %
26.06.2022 01:42 17,6 C 16,1 C 13,3 C 97 % 1012,2 hPa 0,0 l/m 0 min 2 min 0 W/m 9,7 km/h (2 Bft) 95,65 %
26.06.2022 01:44 17,6 C 16,1 C 13,3 C 97 % 1012,0 hPa 0,2 l/m 0 min 2 min 0 W/m 12,9 km/h (3 Bft) 93,62 %
26.06.2022 01:46 17,5 C 16,1 C 12,8 C 97 % 1012,0 hPa 0,2 l/m 0 min 2 min 0 W/m 12,9 km/h (3 Bft) 95,74 %
26.06.2022 01:48 17,5 C 16,1 C 12,8 C 97 % 1012,1 hPa 0,0 l/m 0 min 2 min 0 W/m 9,7 km/h (2 Bft) 95,74 %
26.06.2022 01:50 17,5 C 16,1 C 12,8 C 97 % 1012,2 hPa 0,0 l/m 0 min 2 min 0 W/m 6,4 km/h (2 Bft) 93,62 %
26.06.2022 01:52 17,4 C 16,1 C 13,3 C 97 % 1012,1 hPa 0,2 l/m 0 min 2 min 0 W/m 6,4 km/h (2 Bft) 93,62 %
26.06.2022 01:54 17,4 C 16,1 C 13,3 C 97 % 1012,1 hPa 0,2 l/m 0 min 2 min 0 W/m 6,4 km/h (2 Bft) 95,65 %
26.06.2022 01:56 17,4 C 16,1 C 13,3 C 97 % 1012,0 hPa 0,2 l/m 0 min 2 min 0 W/m 6,4 km/h (2 Bft) 97,87 %
26.06.2022 01:58 17,4 C 16,1 C 13,3 C 97 % 1012,0 hPa 0,0 l/m 0 min 2 min 0 W/m 3,2 km/h (1 Bft) 97,87 %
26.06.2022 02:00 17,4 C 16,1 C 12,8 C 97 % 1012,0 hPa 0,2 l/m 0 min 2 min 0 W/m 6,4 km/h (2 Bft) 97,87 %
26.06.2022 02:02 17,4 C 16,1 C 12,8 C 97 % 1012,0 hPa 0,0 l/m 0 min 2 min 0 W/m 6,4 km/h (2 Bft) 95,74 %
26.06.2022 02:04 17,4 C 16,1 C 13,3 C 97 % 1012,0 hPa 0,0 l/m 0 min 2 min 0 W/m 3,2 km/h (1 Bft) 97,87 %
26.06.2022 02:06 17,4 C 16,1 C 13,3 C 97 % 1012,0 hPa 0,0 l/m 0 min 2 min 0 W/m 3,2 km/h (1 Bft) 100,00 %
26.06.2022 02:08 17,4 C 16,1 C 13,3 C 97 % 1012,0 hPa 0,0 l/m 0 min 2 min 0 W/m 6,4 km/h (2 Bft) 100,00 %
26.06.2022 02:10 17,4 C 16,1 C 13,3 C 97 % 1012,0 hPa 0,2 l/m 0 min 2 min 0 W/m 3,2 km/h (1 Bft) 100,00 %
26.06.2022 02:12 17,4 C 16,1 C 13,3 C 97 % 1012,1 hPa 0,0 l/m 0 min 2 min 0 W/m 3,2 km/h (1 Bft) 97,87 %
26.06.2022 02:14 17,4 C 16,1 C 13,3 C 97 % 1012,1 hPa 0,0 l/m 0 min 0 min 0 W/m 3,2 km/h (1 Bft) 100,00 %
26.06.2022 02:16 17,4 C 16,1 C 13,3 C 97 % 1012,1 hPa 0,0 l/m 0 min 0 min 0 W/m 0,0 km/h (0 Bft) 100,00 %
26.06.2022 02:18 17,4 C 16,1 C 13,3 C 97 % 1012,1 hPa 0,0 l/m 0 min 0 min 0 W/m 0,0 km/h (0 Bft) 100,00 %
26.06.2022 02:20 17,4 C 16,1 C 13,3 C 97 % 1012,2 hPa 0,0 l/m 0 min 0 min 0 W/m 0,0 km/h (0 Bft) 100,00 %
26.06.2022 02:22 17,4 C 16,1 C 13,3 C 97 % 1012,2 hPa 0,0 l/m 0 min 0 min 0 W/m 0,0 km/h (0 Bft) 93,62 %
26.06.2022 02:24 17,4 C 16,1 C 13,3 C 97 % 1012,2 hPa 0,0 l/m 0 min 2 min 0 W/m 0,0 km/h (0 Bft) 100,00 %
26.06.2022 02:26 17,4 C 16,1 C 12,8 C 97 % 1012,1 hPa 0,0 l/m 0 min 2 min 0 W/m 3,2 km/h (1 Bft) 97,87 %
26.06.2022 02:28 17,4 C 16,1 C 12,8 C 97 % 1012,0 hPa 0,0 l/m 0 min 0 min 0 W/m 3,2 km/h (1 Bft) 100,00 %
26.06.2022 02:30 17,4 C 16,1 C 12,8 C 97 % 1012,1 hPa 0,0 l/m 0 min 0 min 0 W/m 0,0 km/h (0 Bft) 95,65 %
26.06.2022 02:32 17,4 C 16,1 C 13,3 C 97 % 1012,2 hPa 0,0 l/m 0 min 0 min 0 W/m 0,0 km/h (0 Bft) 100,00 %
26.06.2022 02:34 17,4 C 16,1 C 13,3 C 97 % 1012,2 hPa 0,0 l/m 0 min 0 min 0 W/m 0,0 km/h (0 Bft) 100,00 %
26.06.2022 02:36 17,4 C 16,1 C 13,3 C 97 % 1012,2 hPa 0,0 l/m 0 min 0 min 0 W/m 0,0 km/h (0 Bft) 100,00 %
26.06.2022 02:38 17,3 C 16,1 C 13,3 C 97 % 1012,2 hPa 0,0 l/m 0 min 0 min 0 W/m 0,0 km/h (0 Bft) 100,00 %
26.06.2022 02:40 17,4 C 16,1 C 13,3 C 97 % 1012,3 hPa 0,0 l/m 0 min 0 min 0 W/m 3,2 km/h (1 Bft) 100,00 %
26.06.2022 02:42 17,3 C 16,1 C 13,3 C 97 % 1012,4 hPa 0,0 l/m 0 min 0 min 0 W/m 3,2 km/h (1 Bft) 97,83 %
26.06.2022 02:44 17,3 C 16,1 C 13,3 C 97 % 1012,4 hPa 0,0 l/m 0 min 2 min 0 W/m 3,2 km/h (1 Bft) 100,00 %
26.06.2022 02:46 17,3 C 16,1 C 13,3 C 97 % 1012,3 hPa 0,0 l/m 0 min 0 min 0 W/m 0,0 km/h (0 Bft) 97,87 %
26.06.2022 02:48 17,3 C 16,1 C 12,8 C 97 % 1012,2 hPa 0,0 l/m 0 min 0 min 0 W/m 0,0 km/h (0 Bft) 97,87 %
26.06.2022 02:50 17,3 C 16,1 C 13,3 C 97 % 1012,2 hPa 0,0 l/m 0 min 0 min 0 W/m 0,0 km/h (0 Bft) 100,00 %
26.06.2022 02:52 17,4 C 16,1 C 13,3 C 97 % 1012,2 hPa 0,0 l/m 0 min 0 min 0 W/m 0,0 km/h (0 Bft) 97,83 %
26.06.2022 02:54 17,4 C 16,1 C 13,3 C 97 % 1012,3 hPa 0,0 l/m 0 min 0 min 0 W/m 0,0 km/h (0 Bft) 100,00 %
26.06.2022 02:56 17,3 C 16,1 C 13,3 C 97 % 1012,4 hPa 0,0 l/m 0 min 0 min 0 W/m 0,0 km/h (0 Bft) 100,00 %
26.06.2022 02:58 17,3 C 16,1 C 13,3 C 97 % 1012,5 hPa 0,0 l/m 0 min 0 min 0 W/m 3,2 km/h (1 Bft) 97,87 %
26.06.2022 03:00 17,3 C 16,1 C 13,3 C 97 % 1012,5 hPa 0,0 l/m 0 min 0 min 0 W/m 6,4 km/h (2 Bft) 97,87 %
26.06.2022 03:02 17,3 C 16,1 C 13,3 C 97 % 1012,5 hPa 0,0 l/m 0 min 0 min 0 W/m 3,2 km/h (1 Bft) 97,87 %
26.06.2022 03:04 17,3 C 16,1 C 13,3 C 97 % 1012,4 hPa 0,0 l/m 0 min 0 min 0 W/m 0,0 km/h (0 Bft) 97,87 %
26.06.2022 03:06 17,3 C 16,1 C 13,3 C 97 % 1012,5 hPa 0,0 l/m 0 min 0 min 0 W/m 0,0 km/h (0 Bft) 97,83 %
26.06.2022 03:08 17,3 C 16,1 C 13,3 C 97 % 1012,5 hPa 0,0 l/m 0 min 0 min 0 W/m 0,0 km/h (0 Bft) 95,74 %
26.06.2022 03:10 17,3 C 16,1 C 12,8 C 97 % 1012,5 hPa 0,0 l/m 0 min 0 min 0 W/m 3,2 km/h (1 Bft) 95,74 %
26.06.2022 03:12 17,3 C 16,1 C 12,8 C 97 % 1012,5 hPa 0,0 l/m 0 min 0 min 0 W/m 3,2 km/h (1 Bft) 97,87 %
26.06.2022 03:14 17,2 C 16,1 C 12,8 C 97 % 1012,5 hPa 0,0 l/m 0 min 0 min 0 W/m 3,2 km/h (1 Bft) 97,87 %
26.06.2022 03:16 17,2 C 16,1 C 12,8 C 97 % 1012,5 hPa 0,0 l/m 0 min 0 min 0 W/m 0,0 km/h (0 Bft) 95,74 %
26.06.2022 03:18 17,2 C 16,1 C 12,8 C 97 % 1012,6 hPa 0,0 l/m 0 min 0 min 0 W/m 3,2 km/h (1 Bft) 95,65 %
26.06.2022 03:20 17,2 C 16,1 C 12,8 C 97 % 1012,6 hPa 0,0 l/m 0 min 0 min 0 W/m 3,2 km/h (1 Bft) 95,74 %
26.06.2022 03:22 17,2 C 16,1 C 12,8 C 97 % 1012,5 hPa 0,0 l/m 0 min 0 min 0 W/m 0,0 km/h (0 Bft) 95,74 %
26.06.2022 03:24 17,1 C 16,1 C 13,3 C 97 % 1012,6 hPa 0,0 l/m 0 min 0 min 0 W/m 6,4 km/h (2 Bft) 93,62 %
26.06.2022 03:26 17,1 C 16,1 C 12,8 C 97 % 1012,6 hPa 0,0 l/m 0 min 0 min 0 W/m 9,7 km/h (2 Bft) 95,74 %
26.06.2022 03:28 17,1 C 16,1 C 12,8 C 97 % 1012,6 hPa 0,0 l/m 0 min 0 min 0 W/m 6,4 km/h (2 Bft) 93,62 %
26.06.2022 03:30 17,1 C 16,1 C 12,8 C 97 % 1012,6 hPa 0,0 l/m 0 min 0 min 0 W/m 3,2 km/h (1 Bft) 95,65 %
26.06.2022 03:32 17,1 C 16,1 C 12,8 C 97 % 1012,6 hPa 0,0 l/m 0 min 0 min 0 W/m 3,2 km/h (1 Bft) 95,83 %
26.06.2022 03:34 17,1 C 16,1 C 12,8 C 97 % 1012,7 hPa 0,0 l/m 0 min 0 min 0 W/m 3,2 km/h (1 Bft) 95,74 %
26.06.2022 03:36 17,1 C 16,1 C 12,8 C 97 % 1012,8 hPa 0,0 l/m 0 min 0 min 0 W/m 3,2 km/h (1 Bft) 95,74 %
26.06.2022 03:38 17,1 C 16,1 C 12,8 C 98 % 1012,7 hPa 0,0 l/m 0 min 0 min 0 W/m 3,2 km/h (1 Bft) 95,65 %
26.06.2022 03:40 17,1 C 16,1 C 12,8 C 97 % 1012,8 hPa 0,0 l/m 0 min 0 min 0 W/m 0,0 km/h (0 Bft) 95,74 %
26.06.2022 03:42 17,1 C 16,1 C 12,8 C 97 % 1012,8 hPa 0,0 l/m 0 min 0 min 0 W/m 0,0 km/h (0 Bft) 95,74 %
26.06.2022 03:44 17,1 C 16,1 C 12,8 C 97 % 1012,9 hPa 0,0 l/m 0 min 0 min 0 W/m 9,7 km/h (2 Bft) 97,87 %
26.06.2022 03:46 17,0 C 16,1 C 12,8 C 97 % 1012,8 hPa 0,0 l/m 0 min 0 min 0 W/m 6,4 km/h (2 Bft) 97,87 %
26.06.2022 03:48 17,0 C 16,1 C 12,8 C 97 % 1012,8 hPa 0,0 l/m 0 min 0 min 0 W/m 3,2 km/h (1 Bft) 95,74 %
26.06.2022 03:50 16,9 C 16,1 C 12,8 C 97 % 1012,8 hPa 0,0 l/m 0 min 0 min 0 W/m 3,2 km/h (1 Bft) 100,00 %
26.06.2022 03:52 16,9 C 16,1 C 12,8 C 97 % 1012,8 hPa 0,0 l/m 0 min 0 min 0 W/m 6,4 km/h (2 Bft) 100,00 %
26.06.2022 03:54 16,9 C 16,1 C 12,8 C 97 % 1012,8 hPa 0,0 l/m 0 min 0 min 0 W/m 3,2 km/h (1 Bft) 100,00 %
26.06.2022 03:56 16,9 C 16,1 C 12,8 C 97 % 1012,8 hPa 0,0 l/m 0 min 0 min 0 W/m 3,2 km/h (1 Bft) 100,00 %
26.06.2022 03:58 16,9 C 16,1 C 12,8 C 98 % 1012,8 hPa 0,0 l/m 0 min 0 min 0 W/m 6,4 km/h (2 Bft) 100,00 %
26.06.2022 04:00 16,9 C 16,1 C 12,8 C 98 % 1012,8 hPa 0,0 l/m 0 min 0 min 0 W/m 6,4 km/h (2 Bft) 100,00 %
26.06.2022 04:02 17,0 C 16,1 C 12,8 C 98 % 1012,9 hPa 0,0 l/m 0 min 0 min 0 W/m 3,2 km/h (1 Bft) 100,00 %
26.06.2022 04:04 16,9 C 16,1 C 12,8 C 98 % 1013,0 hPa 0,0 l/m 0 min 0 min 0 W/m 9,7 km/h (2 Bft) 100,00 %
26.06.2022 04:06 16,9 C 16,1 C 12,8 C 98 % 1013,2 hPa 0,0 l/m 0 min 0 min 0 W/m 9,7 km/h (2 Bft) 100,00 %
26.06.2022 04:08 16,9 C 16,1 C 12,8 C 98 % 1013,2 hPa 0,0 l/m 0 min 0 min 0 W/m 9,7 km/h (2 Bft) 100,00 %
26.06.2022 04:10 16,9 C 16,1 C 12,8 C 98 % 1013,3 hPa 0,0 l/m 0 min 0 min 0 W/m 16,1 km/h (3 Bft) 100,00 %
26.06.2022 04:12 16,9 C 16,1 C 12,8 C 98 % 1013,2 hPa 0,0 l/m 0 min 0 min 0 W/m 12,9 km/h (3 Bft) 97,87 %
26.06.2022 04:14 16,9 C 16,1 C 12,8 C 98 % 1013,3 hPa 0,0 l/m 0 min 0 min 0 W/m 6,4 km/h (2 Bft) 97,87 %
26.06.2022 04:16 16,9 C 16,1 C 12,8 C 98 % 1013,3 hPa 0,0 l/m 0 min 0 min 0 W/m 9,7 km/h (2 Bft) 95,65 %
26.06.2022 04:18 16,9 C 16,1 C 12,8 C 98 % 1013,3 hPa 0,0 l/m 0 min 0 min 0 W/m 6,4 km/h (2 Bft) 97,87 %
26.06.2022 04:20 16,9 C 16,1 C 12,8 C 98 % 1013,2 hPa 0,0 l/m 0 min 0 min 0 W/m 6,4 km/h (2 Bft) 97,87 %
26.06.2022 04:22 16,9 C 16,1 C 12,8 C 98 % 1013,1 hPa 0,0 l/m 0 min 0 min 0 W/m 3,2 km/h (1 Bft) 97,87 %
26.06.2022 04:24 17,0 C 16,1 C 12,8 C 98 % 1013,0 hPa 0,0 l/m 0 min 0 min 0 W/m 3,2 km/h (1 Bft) 97,87 %
26.06.2022 04:26 17,0 C 16,1 C 12,8 C 98 % 1012,9 hPa 0,0 l/m 0 min 0 min 0 W/m 0,0 km/h (0 Bft) 97,87 %
26.06.2022 04:28 17,0 C 16,1 C 12,8 C 98 % 1012,9 hPa 0,0 l/m 0 min 0 min 0 W/m 3,2 km/h (1 Bft) 93,48 %
26.06.2022 04:30 17,0 C 16,1 C 12,8 C 98 % 1013,0 hPa 0,0 l/m 0 min 0 min 0 W/m 0,0 km/h (0 Bft) 97,87 %
26.06.2022 04:32 16,9 C 16,1 C 12,8 C 98 % 1013,0 hPa 0,0 l/m 0 min 0 min 0 W/m 0,0 km/h (0 Bft) 97,87 %
26.06.2022 04:34 16,9 C 15,6 C 12,8 C 98 % 1013,0 hPa 0,0 l/m 0 min 0 min 0 W/m 3,2 km/h (1 Bft) 97,87 %
26.06.2022 04:36 16,9 C 15,6 C 12,8 C 98 % 1013,0 hPa 0,0 l/m 0 min 0 min 0 W/m 0,0 km/h (0 Bft) 97,87 %
26.06.2022 04:38 16,9 C 15,6 C 12,8 C 98 % 1013,0 hPa 0,0 l/m 0 min 0 min 0 W/m 0,0 km/h (0 Bft) 95,74 %
26.06.2022 04:40 16,9 C 15,6 C 12,8 C 98 % 1013,0 hPa 0,0 l/m 0 min 0 min 0 W/m 0,0 km/h (0 Bft) 95,65 %
26.06.2022 04:42 16,9 C 15,6 C 12,8 C 98 % 1012,9 hPa 0,0 l/m 0 min 0 min 0 W/m 0,0 km/h (0 Bft) 97,87 %
26.06.2022 04:44 16,9 C 15,6 C 12,8 C 98 % 1013,0 hPa 0,0 l/m 0 min 0 min 0 W/m 3,2 km/h (1 Bft) 95,74 %
26.06.2022 04:46 16,8 C 15,6 C 12,8 C 98 % 1013,0 hPa 0,0 l/m 0 min 0 min 0 W/m 3,2 km/h (1 Bft) 97,87 %
26.06.2022 04:48 16,8 C 15,6 C 12,8 C 98 % 1013,1 hPa 0,0 l/m 0 min 0 min 0 W/m 12,9 km/h (3 Bft) 97,87 %
26.06.2022 04:50 16,8 C 16,1 C 12,8 C 98 % 1013,1 hPa 0,0 l/m 0 min 0 min 0 W/m 6,4 km/h (2 Bft) 97,87 %
26.06.2022 04:52 16,8 C 16,1 C 12,8 C 98 % 1013,1 hPa 0,0 l/m 0 min 0 min 0 W/m 3,2 km/h (1 Bft) 97,83 %
26.06.2022 04:54 16,8 C 16,1 C 12,8 C 98 % 1013,0 hPa 0,0 l/m 0 min 0 min 0 W/m 9,7 km/h (2 Bft) 97,87 %
26.06.2022 04:56 16,8 C 16,1 C 12,8 C 98 % 1013,0 hPa 0,0 l/m 0 min 0 min 0 W/m 6,4 km/h (2 Bft) 97,87 %
26.06.2022 04:58 16,9 C 16,1 C 12,8 C 98 % 1013,0 hPa 0,0 l/m 0 min 0 min 0 W/m 3,2 km/h (1 Bft) 97,87 %
26.06.2022 05:00 16,8 C 16,1 C 12,8 C 98 % 1013,0 hPa 0,0 l/m 0 min 0 min 0 W/m 3,2 km/h (1 Bft) 97,87 %
26.06.2022 05:02 16,8 C 16,1 C 12,8 C 98 % 1013,0 hPa 0,0 l/m 0 min 0 min 0 W/m 3,2 km/h (1 Bft) 95,74 %
26.06.2022 05:04 16,8 C 16,1 C 12,8 C 98 % 1013,1 hPa 0,0 l/m 0 min 0 min 0 W/m 3,2 km/h (1 Bft) 100,00 %
26.06.2022 05:06 16,9 C 16,1 C 12,8 C 98 % 1013,2 hPa 0,0 l/m 0 min 0 min 0 W/m 3,2 km/h (1 Bft) 97,87 %
26.06.2022 05:08 16,9 C 16,1 C 12,8 C 98 % 1013,3 hPa 0,0 l/m 0 min 0 min 0 W/m 3,2 km/h (1 Bft) 97,87 %
26.06.2022 05:10 16,9 C 16,1 C 12,8 C 98 % 1013,3 hPa 0,0 l/m 0 min 0 min 0 W/m 3,2 km/h (1 Bft) 95,74 %
26.06.2022 05:12 16,9 C 16,1 C 12,8 C 98 % 1013,3 hPa 0,0 l/m 0 min 0 min 0 W/m 3,2 km/h (1 Bft) 95,74 %
26.06.2022 05:14 16,9 C 16,1 C 12,8 C 98 % 1013,3 hPa 0,0 l/m 0 min 0 min 0 W/m 3,2 km/h (1 Bft) 93,62 %
26.06.2022 05:16 16,9 C 16,1 C 12,8 C 98 % 1013,4 hPa 0,0 l/m 0 min 0 min 0 W/m 6,4 km/h (2 Bft) 97,83 %
26.06.2022 05:18 16,9 C 16,1 C 12,8 C 98 % 1013,5 hPa 0,0 l/m 0 min 0 min 0 W/m 6,4 km/h (2 Bft) 97,87 %
26.06.2022 05:20 16,9 C 16,1 C 12,8 C 98 % 1013,6 hPa 0,0 l/m 0 min 0 min 0 W/m 6,4 km/h (2 Bft) 97,87 %
26.06.2022 05:22 16,9 C 16,1 C 12,8 C 98 % 1013,6 hPa 0,0 l/m 0 min 0 min 0 W/m 3,2 km/h (1 Bft) 97,87 %
26.06.2022 05:24 16,9 C 16,1 C 12,8 C 98 % 1013,6 hPa 0,0 l/m 0 min 0 min 0 W/m 6,4 km/h (2 Bft) 97,87 %
26.06.2022 05:26 16,9 C 16,1 C 12,8 C 98 % 1013,5 hPa 0,0 l/m 0 min 0 min 0 W/m 6,4 km/h (2 Bft) 97,87 %
26.06.2022 05:28 16,9 C 16,1 C 12,8 C 98 % 1013,5 hPa 0,0 l/m 0 min 0 min 0 W/m 3,2 km/h (1 Bft) 93,48 %
26.06.2022 05:30 16,9 C 16,1 C 12,8 C 98 % 1013,7 hPa 0,0 l/m 0 min 0 min 0 W/m 3,2 km/h (1 Bft) 97,87 %
26.06.2022 05:32 16,9 C 16,1 C 12,8 C 98 % 1013,7 hPa 0,0 l/m 0 min 0 min 0 W/m 3,2 km/h (1 Bft) 97,87 %
26.06.2022 05:34 16,9 C 16,1 C 12,8 C 98 % 1013,8 hPa 0,0 l/m 0 min 0 min 0 W/m 6,4 km/h (2 Bft) 97,87 %
26.06.2022 05:36 16,9 C 16,1 C 12,8 C 98 % 1013,7 hPa 0,0 l/m 0 min 0 min 0 W/m 0,0 km/h (0 Bft) 97,87 %
26.06.2022 05:38 16,9 C 16,1 C 12,8 C 98 % 1013,7 hPa 0,0 l/m 0 min 0 min 0 W/m 3,2 km/h (1 Bft) 97,87 %
26.06.2022 05:40 16,9 C 16,1 C 12,8 C 98 % 1013,8 hPa 0,0 l/m 0 min 0 min 0 W/m 12,9 km/h (3 Bft) 100,00 %
26.06.2022 05:42 16,9 C 16,1 C 12,8 C 98 % 1013,8 hPa 0,0 l/m 0 min 0 min 0 W/m 6,4 km/h (2 Bft) 100,00 %
26.06.2022 05:44 16,9 C 16,1 C 12,8 C 98 % 1013,9 hPa 0,0 l/m 0 min 0 min 0 W/m 6,4 km/h (2 Bft) 97,87 %
26.06.2022 05:46 16,9 C 16,1 C 12,8 C 98 % 1013,8 hPa 0,0 l/m 0 min 0 min 0 W/m 6,4 km/h (2 Bft) 97,87 %
26.06.2022 05:48 16,9 C 16,1 C 12,8 C 98 % 1013,9 hPa 0,0 l/m 0 min 0 min 2 W/m 6,4 km/h (2 Bft) 97,87 %
26.06.2022 05:50 16,9 C 16,1 C 12,8 C 98 % 1013,9 hPa 0,0 l/m 0 min 0 min 7 W/m 3,2 km/h (1 Bft) 95,74 %
26.06.2022 05:52 17,0 C 16,1 C 12,8 C 98 % 1013,9 hPa 0,0 l/m 0 min 0 min 11 W/m 12,9 km/h (3 Bft) 97,83 %
26.06.2022 05:54 16,9 C 16,1 C 12,8 C 98 % 1013,9 hPa 0,0 l/m 0 min 0 min 12 W/m 12,9 km/h (3 Bft) 97,87 %
26.06.2022 05:56 16,9 C 16,1 C 12,8 C 98 % 1013,9 hPa 0,0 l/m 0 min 0 min 11 W/m 12,9 km/h (3 Bft) 97,87 %
26.06.2022 05:58 16,8 C 16,1 C 12,8 C 98 % 1013,9 hPa 0,0 l/m 0 min 0 min 10 W/m 6,4 km/h (2 Bft) 97,87 %
26.06.2022 06:00 16,8 C 16,1 C 12,2 C 98 % 1014,0 hPa 0,0 l/m 0 min 0 min 8 W/m 6,4 km/h (2 Bft) 95,74 %
26.06.2022 06:02 16,7 C 16,1 C 12,2 C 98 % 1013,9 hPa 0,0 l/m 0 min 0 min 9 W/m 9,7 km/h (2 Bft) 97,87 %
26.06.2022 06:04 16,7 C 16,1 C 12,2 C 98 % 1014,0 hPa 0,0 l/m 0 min 0 min 9 W/m 9,7 km/h (2 Bft) 95,65 %
26.06.2022 06:07 16,7 C 16,1 C 12,2 C 98 % 1013,9 hPa 0,0 l/m 0 min 0 min 12 W/m 16,1 km/h (3 Bft) 97,06 %
26.06.2022 06:08 16,6 C 16,1 C 12,2 C 98 % 1013,9 hPa 0,0 l/m 0 min 0 min 16 W/m 12,9 km/h (3 Bft) 100,00 %
26.06.2022 06:10 16,6 C 16,1 C 12,2 C 98 % 1013,9 hPa 0,0 l/m 0 min 0 min 19 W/m 12,9 km/h (3 Bft) 95,74 %
26.06.2022 06:12 16,6 C 16,1 C 12,2 C 98 % 1013,9 hPa 0,0 l/m 0 min 0 min 21 W/m 6,4 km/h (2 Bft) 97,87 %
26.06.2022 06:14 16,6 C 16,1 C 12,2 C 98 % 1013,9 hPa 0,0 l/m 0 min 0 min 23 W/m 6,4 km/h (2 Bft) 95,65 %
26.06.2022 06:16 16,6 C 16,1 C 12,2 C 98 % 1013,9 hPa 0,0 l/m 0 min 0 min 24 W/m 6,4 km/h (2 Bft) 97,87 %
26.06.2022 06:18 16,5 C 16,1 C 12,2 C 98 % 1013,9 hPa 0,0 l/m 0 min 0 min 18 W/m 12,9 km/h (3 Bft) 97,87 %
26.06.2022 06:20 16,6 C 16,1 C 12,2 C 98 % 1013,8 hPa 0,0 l/m 0 min 0 min 20 W/m 6,4 km/h (2 Bft) 97,87 %
26.06.2022 06:22 16,5 C 16,1 C 12,2 C 98 % 1013,8 hPa 0,0 l/m 0 min 0 min 24 W/m 6,4 km/h (2 Bft) 97,87 %
26.06.2022 06:24 16,5 C 16,1 C 12,2 C 97 % 1013,9 hPa 0,0 l/m 0 min 0 min 20 W/m 9,7 km/h (2 Bft) 97,87 %
26.06.2022 06:26 16,4 C 16,1 C 12,2 C 97 % 1013,9 hPa 0,0 l/m 0 min 0 min 23 W/m 6,4 km/h (2 Bft) 97,83 %
26.06.2022 06:28 16,4 C 16,1 C 12,2 C 97 % 1014,0 hPa 0,0 l/m 0 min 0 min 29 W/m 6,4 km/h (2 Bft) 97,87 %
26.06.2022 06:30 16,4 C 16,1 C 12,2 C 97 % 1014,0 hPa 0,0 l/m 0 min 0 min 29 W/m 6,4 km/h (2 Bft) 97,87 %
26.06.2022 06:32 16,4 C 16,1 C 11,7 C 97 % 1014,1 hPa 0,0 l/m 0 min 0 min 28 W/m 6,4 km/h (2 Bft) 97,87 %
26.06.2022 06:34 16,4 C 15,6 C 11,7 C 97 % 1014,1 hPa 0,0 l/m 0 min 0 min 30 W/m 6,4 km/h (2 Bft) 97,87 %
26.06.2022 06:36 16,3 C 15,6 C 11,7 C 97 % 1014,1 hPa 0,0 l/m 0 min 0 min 30 W/m 6,4 km/h (2 Bft) 100,00 %
26.06.2022 06:38 16,3 C 15,6 C 11,7 C 97 % 1014,2 hPa 0,0 l/m 0 min 0 min 28 W/m 6,4 km/h (2 Bft) 100,00 %
26.06.2022 06:40 16,3 C 15,6 C 11,7 C 97 % 1014,2 hPa 0,0 l/m 0 min 0 min 28 W/m 3,2 km/h (1 Bft) 100,00 %
26.06.2022 06:42 16,3 C 15,6 C 11,7 C 96 % 1014,2 hPa 0,0 l/m 0 min 0 min 28 W/m 6,4 km/h (2 Bft) 100,00 %
26.06.2022 06:44 16,3 C 15,6 C 11,7 C 96 % 1014,2 hPa 0,0 l/m 0 min 0 min 26 W/m 6,4 km/h (2 Bft) 100,00 %
26.06.2022 06:46 16,2 C 15,6 C 11,7 C 96 % 1014,2 hPa 0,0 l/m 0 min 0 min 25 W/m 3,2 km/h (1 Bft) 100,00 %
26.06.2022 06:48 16,2 C 15,6 C 11,7 C 96 % 1014,3 hPa 0,0 l/m 0 min 0 min 24 W/m 6,4 km/h (2 Bft) 100,00 %
26.06.2022 06:50 16,2 C 15,6 C 11,7 C 96 % 1014,3 hPa 0,0 l/m 0 min 0 min 24 W/m 6,4 km/h (2 Bft) 100,00 %
26.06.2022 06:52 16,2 C 15,6 C 11,7 C 96 % 1014,2 hPa 0,0 l/m 0 min 0 min 24 W/m 12,9 km/h (3 Bft) 100,00 %
26.06.2022 06:54 16,2 C 15,6 C 11,7 C 96 % 1014,2 hPa 0,0 l/m 0 min 0 min 24 W/m 6,4 km/h (2 Bft) 97,87 %
26.06.2022 06:56 16,2 C 15,6 C 11,7 C 96 % 1014,3 hPa 0,0 l/m 0 min 0 min 22 W/m 9,7 km/h (2 Bft) 100,00 %
26.06.2022 06:58 16,1 C 15,6 C 11,7 C 96 % 1014,3 hPa 0,0 l/m 0 min 0 min 25 W/m 6,4 km/h (2 Bft) 97,87 %
26.06.2022 07:00 16,1 C 15,6 C 11,7 C 96 % 1014,3 hPa 0,0 l/m 0 min 0 min 27 W/m 6,4 km/h (2 Bft) 100,00 %
26.06.2022 07:02 16,1 C 15,6 C 11,7 C 96 % 1014,3 hPa 0,0 l/m 0 min 0 min 27 W/m 6,4 km/h (2 Bft) 97,83 %
26.06.2022 07:04 16,1 C 15,6 C 11,7 C 96 % 1014,3 hPa 0,0 l/m 0 min 0 min 30 W/m 6,4 km/h (2 Bft) 97,87 %
26.06.2022 07:06 16,1 C 15,6 C 11,7 C 95 % 1014,3 hPa 0,0 l/m 0 min 0 min 30 W/m 6,4 km/h (2 Bft) 95,74 %
26.06.2022 07:08 16,1 C 15,6 C 11,7 C 95 % 1014,3 hPa 0,0 l/m 0 min 0 min 30 W/m 6,4 km/h (2 Bft) 95,74 %
26.06.2022 07:10 16,1 C 15,6 C 11,7 C 95 % 1014,3 hPa 0,0 l/m 0 min 0 min 30 W/m 6,4 km/h (2 Bft) 95,74 %
26.06.2022 07:12 16,1 C 15,6 C 11,7 C 95 % 1014,4 hPa 0,0 l/m 0 min 0 min 32 W/m 6,4 km/h (2 Bft) 93,62 %
26.06.2022 07:14 16,1 C 15,6 C 11,7 C 95 % 1014,3 hPa 0,0 l/m 0 min 0 min 33 W/m 9,7 km/h (2 Bft) 95,65 %
26.06.2022 07:16 16,1 C 15,6 C 11,7 C 95 % 1014,4 hPa 0,0 l/m 0 min 0 min 35 W/m 6,4 km/h (2 Bft) 91,49 %
26.06.2022 07:18 16,1 C 15,6 C 11,7 C 95 % 1014,3 hPa 0,0 l/m 0 min 0 min 39 W/m 6,4 km/h (2 Bft) 95,74 %
26.06.2022 07:20 16,1 C 15,6 C 12,2 C 95 % 1014,4 hPa 0,0 l/m 0 min 0 min 44 W/m 3,2 km/h (1 Bft) 95,74 %
26.06.2022 07:22 16,1 C 15,6 C 12,2 C 95 % 1014,5 hPa 0,0 l/m 0 min 0 min 49 W/m 12,9 km/h (3 Bft) 93,62 %
26.06.2022 07:24 16,1 C 15,6 C 12,2 C 95 % 1014,5 hPa 0,0 l/m 0 min 0 min 45 W/m 9,7 km/h (2 Bft) 95,74 %
26.06.2022 07:26 16,1 C 15,6 C 12,2 C 95 % 1014,5 hPa 0,0 l/m 0 min 0 min 51 W/m 6,4 km/h (2 Bft) 95,65 %
26.06.2022 07:28 16,1 C 15,6 C 12,2 C 95 % 1014,5 hPa 0,0 l/m 0 min 0 min 60 W/m 12,9 km/h (3 Bft) 95,74 %
26.06.2022 07:30 16,2 C 15,6 C 12,2 C 95 % 1014,5 hPa 0,0 l/m 0 min 0 min 75 W/m 12,9 km/h (3 Bft) 95,74 %
26.06.2022 07:32 16,2 C 15,6 C 12,2 C 95 % 1014,5 hPa 0,0 l/m 0 min 0 min 85 W/m 9,7 km/h (2 Bft) 97,87 %
26.06.2022 07:34 16,2 C 15,6 C 12,2 C 94 % 1014,5 hPa 0,0 l/m 0 min 0 min 93 W/m 6,4 km/h (2 Bft) 97,87 %
26.06.2022 07:36 16,2 C 16,1 C 12,2 C 94 % 1014,6 hPa 0,0 l/m 0 min 0 min 98 W/m 6,4 km/h (2 Bft) 97,87 %
26.06.2022 07:38 16,2 C 16,1 C 12,2 C 94 % 1014,7 hPa 0,0 l/m 0 min 0 min 100 W/m 3,2 km/h (1 Bft) 95,65 %
26.06.2022 07:40 16,2 C 16,1 C 12,2 C 94 % 1014,7 hPa 0,0 l/m 0 min 0 min 113 W/m 9,7 km/h (2 Bft) 95,74 %
26.06.2022 07:42 16,3 C 16,1 C 12,2 C 94 % 1014,8 hPa 0,0 l/m 2 min 0 min 214 W/m 6,4 km/h (2 Bft) 97,87 %
26.06.2022 07:44 16,3 C 16,1 C 12,2 C 94 % 1014,8 hPa 0,0 l/m 2 min 0 min 219 W/m 6,4 km/h (2 Bft) 97,87 %
26.06.2022 07:46 16,3 C 16,1 C 12,2 C 94 % 1014,9 hPa 0,0 l/m 0 min 0 min 100 W/m 6,4 km/h (2 Bft) 97,87 %
26.06.2022 07:48 16,3 C 16,1 C 12,2 C 94 % 1015,0 hPa 0,0 l/m 0 min 0 min 70 W/m 6,4 km/h (2 Bft) 97,87 %
26.06.2022 07:50 16,3 C 16,1 C 12,2 C 94 % 1014,9 hPa 0,0 l/m 0 min 0 min 69 W/m 3,2 km/h (1 Bft) 97,83 %
26.06.2022 07:52 16,4 C 16,1 C 12,2 C 94 % 1014,9 hPa 0,0 l/m 0 min 0 min 66 W/m 6,4 km/h (2 Bft) 95,74 %
26.06.2022 07:54 16,4 C 16,1 C 12,2 C 94 % 1014,9 hPa 0,0 l/m 0 min 0 min 65 W/m 12,9 km/h (3 Bft) 97,87 %
26.06.2022 07:56 16,4 C 16,1 C 12,2 C 93 % 1014,9 hPa 0,0 l/m 0 min 0 min 63 W/m 6,4 km/h (2 Bft) 95,74 %
26.06.2022 07:58 16,4 C 16,1 C 12,2 C 93 % 1014,9 hPa 0,0 l/m 0 min 0 min 62 W/m 6,4 km/h (2 Bft) 97,87 %
26.06.2022 08:00 16,4 C 16,1 C 12,2 C 93 % 1015,0 hPa 0,0 l/m 0 min 0 min 60 W/m 6,4 km/h (2 Bft) 100,00 %
26.06.2022 08:02 16,4 C 16,1 C 12,2 C 93 % 1014,9 hPa 0,0 l/m 0 min 0 min 159 W/m 6,4 km/h (2 Bft) 97,87 %
26.06.2022 08:04 16,4 C 16,1 C 12,2 C 93 % 1014,9 hPa 0,0 l/m 2 min 0 min 289 W/m 9,7 km/h (2 Bft) 100,00 %
26.06.2022 08:06 16,4 C 16,1 C 12,2 C 93 % 1014,9 hPa 0,0 l/m 2 min 0 min 302 W/m 6,4 km/h (2 Bft) 100,00 %
26.06.2022 08:08 16,4 C 16,7 C 12,2 C 93 % 1014,9 hPa 0,0 l/m 2 min 0 min 327 W/m 9,7 km/h (2 Bft) 97,87 %
26.06.2022 08:10 16,5 C 16,7 C 12,2 C 93 % 1015,0 hPa 0,0 l/m 2 min 0 min 325 W/m 9,7 km/h (2 Bft) 100,00 %
26.06.2022 08:12 16,6 C 17,2 C 12,8 C 93 % 1015,0 hPa 0,0 l/m 2 min 0 min 278 W/m 6,4 km/h (2 Bft) 95,74 %
26.06.2022 08:14 16,6 C 17,2 C 12,8 C 93 % 1015,0 hPa 0,0 l/m 2 min 0 min 257 W/m 6,4 km/h (2 Bft) 97,83 %
26.06.2022 08:16 16,7 C 17,2 C 12,8 C 93 % 1015,1 hPa 0,0 l/m 2 min 0 min 280 W/m 6,4 km/h (2 Bft) 97,87 %
26.06.2022 08:18 16,8 C 17,8 C 12,8 C 93 % 1015,1 hPa 0,0 l/m 2 min 0 min 276 W/m 6,4 km/h (2 Bft) 100,00 %
26.06.2022 08:20 16,8 C 17,8 C 12,8 C 93 % 1015,1 hPa 0,0 l/m 2 min 0 min 234 W/m 6,4 km/h (2 Bft) 100,00 %
26.06.2022 08:22 16,8 C 17,8 C 12,8 C 93 % 1015,1 hPa 0,0 l/m 0 min 0 min 173 W/m 12,9 km/h (3 Bft) 100,00 %
26.06.2022 08:24 16,9 C 17,8 C 12,8 C 92 % 1015,1 hPa 0,0 l/m 0 min 0 min 170 W/m 9,7 km/h (2 Bft) 97,83 %
26.06.2022 08:26 16,9 C 17,2 C 12,8 C 92 % 1015,3 hPa 0,0 l/m 0 min 0 min 134 W/m 9,7 km/h (2 Bft) 100,00 %
26.06.2022 08:28 16,9 C 17,2 C 12,8 C 92 % 1015,2 hPa 0,0 l/m 0 min 0 min 186 W/m 9,7 km/h (2 Bft) 100,00 %
26.06.2022 08:30 16,9 C 17,2 C 12,8 C 91 % 1015,3 hPa 0,0 l/m 2 min 0 min 229 W/m 6,4 km/h (2 Bft) 100,00 %
26.06.2022 08:32 16,9 C 17,8 C 13,3 C 92 % 1015,3 hPa 0,0 l/m 2 min 0 min 313 W/m 6,4 km/h (2 Bft) 97,87 %
26.06.2022 08:34 17,0 C 18,3 C 13,3 C 92 % 1015,3 hPa 0,0 l/m 2 min 0 min 417 W/m 12,9 km/h (3 Bft) 97,87 %
26.06.2022 08:36 17,1 C 18,9 C 13,9 C 91 % 1015,4 hPa 0,0 l/m 2 min 0 min 366 W/m 6,4 km/h (2 Bft) 100,00 %
26.06.2022 08:38 17,2 C 19,4 C 13,9 C 91 % 1015,4 hPa 0,0 l/m 2 min 0 min 387 W/m 6,4 km/h (2 Bft) 100,00 %
26.06.2022 08:40 17,2 C 19,4 C 14,4 C 91 % 1015,4 hPa 0,0 l/m 2 min 0 min 360 W/m 6,4 km/h (2 Bft) 95,74 %
26.06.2022 08:42 17,3 C 20,0 C 14,4 C 91 % 1015,4 hPa 0,0 l/m 2 min 0 min 338 W/m 6,4 km/h (2 Bft) 97,87 %
26.06.2022 08:44 17,4 C 20,0 C 15,0 C 91 % 1015,5 hPa 0,0 l/m 2 min 0 min 527 W/m 6,4 km/h (2 Bft) 97,87 %
26.06.2022 08:46 17,5 C 19,4 C 14,4 C 91 % 1015,5 hPa 0,0 l/m 2 min 0 min 286 W/m 6,4 km/h (2 Bft) 97,87 %
26.06.2022 08:48 17,6 C 19,4 C 14,4 C 90 % 1015,6 hPa 0,0 l/m 0 min 0 min 162 W/m 3,2 km/h (1 Bft) 95,65 %
26.06.2022 08:50 17,6 C 18,9 C 14,4 C 90 % 1015,6 hPa 0,0 l/m 0 min 0 min 188 W/m 3,2 km/h (1 Bft) 100,00 %
26.06.2022 08:52 17,6 C 19,4 C 15,0 C 90 % 1015,6 hPa 0,0 l/m 2 min 0 min 396 W/m 6,4 km/h (2 Bft) 95,74 %
26.06.2022 08:54 17,7 C 20,0 C 15,6 C 89 % 1015,6 hPa 0,0 l/m 2 min 0 min 571 W/m 6,4 km/h (2 Bft) 93,62 %
26.06.2022 08:56 17,8 C 21,1 C 16,1 C 89 % 1015,7 hPa 0,0 l/m 2 min 0 min 511 W/m 3,2 km/h (1 Bft) 97,87 %
26.06.2022 08:58 17,9 C 21,1 C 16,1 C 89 % 1015,7 hPa 0,0 l/m 2 min 0 min 434 W/m 16,1 km/h (3 Bft) 93,62 %
26.06.2022 09:00 18,0 C 21,1 C 16,1 C 88 % 1015,8 hPa 0,0 l/m 2 min 0 min 550 W/m 6,4 km/h (2 Bft) 97,87 %
26.06.2022 09:02 18,2 C 22,2 C 16,7 C 88 % 1015,8 hPa 0,0 l/m 2 min 0 min 644 W/m 6,4 km/h (2 Bft) 95,65 %
26.06.2022 09:04 18,3 C 22,2 C 16,7 C 88 % 1015,7 hPa 0,0 l/m 2 min 0 min 589 W/m 6,4 km/h (2 Bft) 95,74 %
26.06.2022 09:06 18,3 C 22,2 C 16,7 C 87 % 1015,7 hPa 0,0 l/m 2 min 0 min 589 W/m 3,2 km/h (1 Bft) 95,74 %
26.06.2022 09:08 18,4 C 21,1 C 16,7 C 87 % 1015,7 hPa 0,0 l/m 2 min 0 min 589 W/m 9,7 km/h (2 Bft) 95,74 %
26.06.2022 09:10 18,4 C 20,6 C 16,7 C 86 % 1015,7 hPa 0,0 l/m 2 min 0 min 319 W/m 6,4 km/h (2 Bft) 93,62 %
26.06.2022 09:12 18,4 C 21,1 C 16,7 C 86 % 1015,7 hPa 0,0 l/m 0 min 0 min 179 W/m 6,4 km/h (2 Bft) 95,74 %
26.06.2022 09:14 18,4 C 22,8 C 17,2 C 86 % 1015,6 hPa 0,0 l/m 2 min 0 min 460 W/m 6,4 km/h (2 Bft) 95,65 %
26.06.2022 09:16 18,6 C 23,3 C 17,8 C 86 % 1015,6 hPa 0,0 l/m 2 min 0 min 736 W/m 9,7 km/h (2 Bft) 95,74 %
26.06.2022 09:18 18,7 C 23,9 C 17,8 C 85 % 1015,6 hPa 0,0 l/m 2 min 0 min 747 W/m 6,4 km/h (2 Bft) 95,74 %
26.06.2022 09:20 18,8 C 22,8 C 17,8 C 84 % 1015,6 hPa 0,0 l/m 2 min 0 min 470 W/m 3,2 km/h (1 Bft) 95,74 %
26.06.2022 09:22 18,8 C 22,2 C 17,8 C 84 % 1015,6 hPa 0,0 l/m 0 min 0 min 264 W/m 6,4 km/h (2 Bft) 95,74 %
26.06.2022 09:24 18,9 C 21,7 C 17,2 C 83 % 1015,7 hPa 0,0 l/m 0 min 0 min 258 W/m 3,2 km/h (1 Bft) 95,74 %
26.06.2022 09:26 18,9 C 20,6 C 17,2 C 82 % 1015,7 hPa 0,0 l/m 0 min 0 min 252 W/m 6,4 km/h (2 Bft) 95,65 %
26.06.2022 09:28 18,8 C 20,0 C 16,7 C 81 % 1015,8 hPa 0,0 l/m 0 min 0 min 246 W/m 6,4 km/h (2 Bft) 93,62 %
26.06.2022 09:30 18,8 C 20,6 C 16,7 C 81 % 1015,8 hPa 0,0 l/m 2 min 0 min 302 W/m 6,4 km/h (2 Bft) 97,87 %
26.06.2022 09:32 18,8 C 20,6 C 16,7 C 82 % 1015,8 hPa 0,0 l/m 0 min 0 min 240 W/m 3,2 km/h (1 Bft) 95,74 %
26.06.2022 09:34 18,8 C 21,7 C 17,2 C 81 % 1015,8 hPa 0,0 l/m 0 min 0 min 291 W/m 6,4 km/h (2 Bft) 97,87 %
26.06.2022 09:36 18,9 C 22,8 C 17,8 C 81 % 1015,9 hPa 0,0 l/m 2 min 0 min 608 W/m 6,4 km/h (2 Bft) 97,83 %
26.06.2022 09:38 19,0 C 23,9 C 17,8 C 81 % 1015,9 hPa 0,0 l/m 2 min 0 min 642 W/m 9,7 km/h (2 Bft) 97,87 %
26.06.2022 09:40 19,1 C 23,9 C 18,3 C 81 % 1016,1 hPa 0,0 l/m 2 min 0 min 646 W/m 12,9 km/h (3 Bft) 93,62 %
26.06.2022 09:42 19,2 C 25,0 C 18,9 C 81 % 1016,1 hPa 0,0 l/m 2 min 0 min 750 W/m 6,4 km/h (2 Bft) 95,74 %
26.06.2022 09:44 19,3 C 23,9 C 18,9 C 81 % 1016,1 hPa 0,0 l/m 2 min 0 min 754 W/m 9,7 km/h (2 Bft) 97,87 %
26.06.2022 09:46 19,4 C 24,4 C 19,4 C 80 % 1016,1 hPa 0,0 l/m 2 min 0 min 701 W/m 6,4 km/h (2 Bft) 95,74 %
26.06.2022 09:48 19,6 C 23,9 C 19,4 C 80 % 1016,1 hPa 0,0 l/m 2 min 0 min 719 W/m 6,4 km/h (2 Bft) 97,83 %
26.06.2022 09:50 19,7 C 23,3 C 19,4 C 80 % 1016,2 hPa 0,0 l/m 2 min 0 min 722 W/m 6,4 km/h (2 Bft) 95,74 %
26.06.2022 09:52 19,8 C 23,9 C 20,0 C 79 % 1016,2 hPa 0,0 l/m 2 min 0 min 740 W/m 6,4 km/h (2 Bft) 95,74 %
26.06.2022 09:54 19,9 C 23,9 C 20,0 C 79 % 1016,2 hPa 0,0 l/m 2 min 0 min 742 W/m 6,4 km/h (2 Bft) 95,74 %
26.06.2022 09:56 20,1 C 23,9 C 20,0 C 79 % 1016,2 hPa 0,0 l/m 2 min 0 min 742 W/m 12,9 km/h (3 Bft) 95,74 %
26.06.2022 09:58 20,1 C 23,9 C 20,6 C 78 % 1016,3 hPa 0,0 l/m 2 min 0 min 795 W/m 9,7 km/h (2 Bft) 93,62 %
26.06.2022 10:00 20,2 C 23,9 C 20,0 C 77 % 1016,2 hPa 0,0 l/m 2 min 0 min 808 W/m 6,4 km/h (2 Bft) 95,74 %
26.06.2022 10:02 20,2 C 22,8 C 19,4 C 77 % 1016,3 hPa 0,0 l/m 0 min 0 min 265 W/m 12,9 km/h (3 Bft) 93,48 %
26.06.2022 10:04 20,1 C 21,7 C 18,3 C 76 % 1016,4 hPa 0,0 l/m 0 min 0 min 265 W/m 16,1 km/h (3 Bft) 95,74 %
26.06.2022 10:06 20,1 C 21,1 C 17,8 C 77 % 1016,4 hPa 0,0 l/m 0 min 0 min 229 W/m 6,4 km/h (2 Bft) 95,74 %
26.06.2022 10:08 20,0 C 20,6 C 17,8 C 77 % 1016,4 hPa 0,0 l/m 0 min 0 min 183 W/m 9,7 km/h (2 Bft) 95,83 %
26.06.2022 10:10 19,9 C 20,0 C 17,2 C 77 % 1016,4 hPa 0,0 l/m 0 min 0 min 180 W/m 12,9 km/h (3 Bft) 95,74 %
26.06.2022 10:12 19,8 C 20,0 C 17,2 C 77 % 1016,5 hPa 0,0 l/m 0 min 0 min 185 W/m 6,4 km/h (2 Bft) 95,65 %
26.06.2022 10:14 19,7 C 20,0 C 17,2 C 77 % 1016,5 hPa 0,0 l/m 0 min 0 min 214 W/m 6,4 km/h (2 Bft) 95,74 %
26.06.2022 10:16 19,7 C 20,0 C 17,2 C 77 % 1016,5 hPa 0,0 l/m 0 min 0 min 243 W/m 16,1 km/h (3 Bft) 95,74 %
26.06.2022 10:18 19,7 C 20,0 C 17,2 C 77 % 1016,4 hPa 0,0 l/m 0 min 0 min 304 W/m 6,4 km/h (2 Bft) 97,87 %
26.06.2022 10:20 19,7 C 20,6 C 17,8 C 77 % 1016,4 hPa 0,0 l/m 0 min 0 min 294 W/m 12,9 km/h (3 Bft) 97,87 %
26.06.2022 10:22 19,7 C 21,1 C 17,8 C 77 % 1016,3 hPa 0,0 l/m 0 min 0 min 294 W/m 12,9 km/h (3 Bft) 100,00 %
26.06.2022 10:24 19,7 C 21,1 C 18,3 C 77 % 1016,3 hPa 0,0 l/m 0 min 0 min 324 W/m 9,7 km/h (2 Bft) 97,83 %
26.06.2022 10:26 19,8 C 21,7 C 18,9 C 76 % 1016,3 hPa 0,0 l/m 2 min 0 min 592 W/m 6,4 km/h (2 Bft) 97,87 %
26.06.2022 10:28 19,9 C 21,1 C 18,3 C 76 % 1016,3 hPa 0,0 l/m 2 min 0 min 378 W/m 9,7 km/h (2 Bft) 97,87 %
26.06.2022 10:30 19,9 C 21,1 C 18,3 C 76 % 1016,3 hPa 0,0 l/m 0 min 0 min 346 W/m 6,4 km/h (2 Bft) 97,87 %
26.06.2022 10:32 19,9 C 21,1 C 18,3 C 75 % 1016,3 hPa 0,0 l/m 2 min 0 min 502 W/m 16,1 km/h (3 Bft) 100,00 %
26.06.2022 10:34 19,9 C 20,6 C 17,8 C 75 % 1016,3 hPa 0,0 l/m 2 min 0 min 425 W/m 12,9 km/h (3 Bft) 97,87 %
26.06.2022 10:36 20,0 C 20,6 C 17,8 C 75 % 1016,3 hPa 0,0 l/m 2 min 0 min 438 W/m 9,7 km/h (2 Bft) 100,00 %
26.06.2022 10:38 20,0 C 21,1 C 18,9 C 75 % 1016,3 hPa 0,0 l/m 2 min 0 min 533 W/m 12,9 km/h (3 Bft) 100,00 %
26.06.2022 10:40 20,1 C 21,7 C 19,4 C 74 % 1016,3 hPa 0,0 l/m 2 min 0 min 807 W/m 6,4 km/h (2 Bft) 100,00 %
26.06.2022 10:42 20,2 C 22,2 C 20,0 C 74 % 1016,3 hPa 0,0 l/m 2 min 0 min 774 W/m 6,4 km/h (2 Bft) 100,00 %
26.06.2022 10:44 20,3 C 22,2 C 20,6 C 74 % 1016,3 hPa 0,0 l/m 2 min 0 min 690 W/m 12,9 km/h (3 Bft) 97,87 %
26.06.2022 10:46 20,4 C 22,2 C 20,0 C 73 % 1016,3 hPa 0,0 l/m 2 min 0 min 633 W/m 9,7 km/h (2 Bft) 100,00 %
26.06.2022 10:48 20,5 C 22,2 C 20,0 C 73 % 1016,3 hPa 0,0 l/m 2 min 0 min 741 W/m 12,9 km/h (3 Bft) 100,00 %
26.06.2022 10:50 20,6 C 22,2 C 20,6 C 73 % 1016,3 hPa 0,0 l/m 2 min 0 min 784 W/m 3,2 km/h (1 Bft) 97,87 %
26.06.2022 10:52 20,7 C 22,2 C 20,0 C 73 % 1016,2 hPa 0,0 l/m 2 min 0 min 685 W/m 12,9 km/h (3 Bft) 97,87 %
26.06.2022 10:54 20,8 C 22,8 C 20,6 C 74 % 1016,2 hPa 0,0 l/m 2 min 0 min 623 W/m 6,4 km/h (2 Bft) 100,00 %
26.06.2022 10:56 20,9 C 23,3 C 21,1 C 74 % 1016,2 hPa 0,0 l/m 2 min 0 min 829 W/m 6,4 km/h (2 Bft) 100,00 %
26.06.2022 10:58 21,1 C 23,9 C 21,7 C 74 % 1016,2 hPa 0,0 l/m 2 min 0 min 900 W/m 6,4 km/h (2 Bft) 97,87 %
26.06.2022 11:00 21,1 C 23,9 C 21,1 C 72 % 1016,2 hPa 0,0 l/m 2 min 0 min 843 W/m 9,7 km/h (2 Bft) 97,83 %
26.06.2022 11:02 21,2 C 23,9 C 20,6 C 71 % 1016,2 hPa 0,0 l/m 2 min 0 min 767 W/m 12,9 km/h (3 Bft) 100,00 %
26.06.2022 11:04 21,2 C 23,3 C 19,4 C 69 % 1016,2 hPa 0,0 l/m 2 min 0 min 770 W/m 9,7 km/h (2 Bft) 95,74 %
26.06.2022 11:06 21,2 C 23,3 C 19,4 C 71 % 1016,3 hPa 0,0 l/m 2 min 0 min 759 W/m 12,9 km/h (3 Bft) 97,87 %
26.06.2022 11:08 21,1 C 22,8 C 18,9 C 70 % 1016,3 hPa 0,0 l/m 2 min 0 min 763 W/m 6,4 km/h (2 Bft) 97,87 %
26.06.2022 11:10 21,2 C 23,3 C 19,4 C 70 % 1016,3 hPa 0,0 l/m 2 min 0 min 735 W/m 6,4 km/h (2 Bft) 97,87 %
26.06.2022 11:12 21,3 C 23,3 C 19,4 C 69 % 1016,3 hPa 0,0 l/m 2 min 0 min 744 W/m 6,4 km/h (2 Bft) 97,83 %
26.06.2022 11:14 21,2 C 22,8 C 18,9 C 69 % 1016,3 hPa 0,0 l/m 2 min 0 min 474 W/m 9,7 km/h (2 Bft) 95,74 %
26.06.2022 11:16 21,2 C 22,8 C 18,9 C 68 % 1016,4 hPa 0,0 l/m 2 min 0 min 453 W/m 16,1 km/h (3 Bft) 97,87 %
26.06.2022 11:18 21,2 C 22,2 C 18,9 C 68 % 1016,4 hPa 0,0 l/m 0 min 0 min 401 W/m 9,7 km/h (2 Bft) 97,87 %
26.06.2022 11:20 21,1 C 21,7 C 18,3 C 68 % 1016,4 hPa 0,0 l/m 0 min 0 min 394 W/m 9,7 km/h (2 Bft) 97,87 %
26.06.2022 11:22 21,1 C 21,7 C 18,3 C 69 % 1016,4 hPa 0,0 l/m 0 min 0 min 397 W/m 6,4 km/h (2 Bft) 97,87 %
26.06.2022 11:24 21,1 C 21,1 C 18,3 C 70 % 1016,4 hPa 0,0 l/m 2 min 0 min 408 W/m 6,4 km/h (2 Bft) 97,83 %
26.06.2022 11:26 21,0 C 21,7 C 18,3 C 70 % 1016,5 hPa 0,0 l/m 2 min 0 min 427 W/m 9,7 km/h (2 Bft) 97,87 %
26.06.2022 11:28 21,1 C 22,8 C 18,9 C 70 % 1016,5 hPa 0,0 l/m 2 min 0 min 754 W/m 9,7 km/h (2 Bft) 97,87 %
26.06.2022 11:30 21,1 C 22,8 C 19,4 C 70 % 1016,6 hPa 0,0 l/m 2 min 0 min 793 W/m 12,9 km/h (3 Bft) 97,87 %
26.06.2022 11:32 21,1 C 22,8 C 19,4 C 68 % 1016,5 hPa 0,0 l/m 2 min 0 min 568 W/m 12,9 km/h (3 Bft) 97,87 %
26.06.2022 11:34 21,1 C 22,8 C 19,4 C 68 % 1016,6 hPa 0,0 l/m 2 min 0 min 652 W/m 6,4 km/h (2 Bft) 97,87 %
26.06.2022 11:36 21,1 C 23,3 C 19,4 C 69 % 1016,6 hPa 0,0 l/m 2 min 0 min 781 W/m 6,4 km/h (2 Bft) 100,00 %
26.06.2022 11:38 21,2 C 23,3 C 20,0 C 70 % 1016,5 hPa 0,0 l/m 2 min 0 min 843 W/m 16,1 km/h (3 Bft) 100,00 %
26.06.2022 11:40 21,3 C 23,9 C 20,0 C 68 % 1016,5 hPa 0,0 l/m 2 min 0 min 897 W/m 12,9 km/h (3 Bft) 100,00 %
26.06.2022 11:42 21,4 C 24,4 C 20,6 C 69 % 1016,6 hPa 0,0 l/m 2 min 0 min 927 W/m 6,4 km/h (2 Bft) 100,00 %
26.06.2022 11:44 21,6 C 24,4 C 21,1 C 70 % 1016,6 hPa 0,0 l/m 2 min 0 min 965 W/m 6,4 km/h (2 Bft) 100,00 %
26.06.2022 11:46 21,8 C 24,4 C 21,7 C 70 % 1016,5 hPa 0,0 l/m 2 min 0 min 615 W/m 12,9 km/h (3 Bft) 97,87 %
26.06.2022 11:48 21,9 C 25,0 C 21,7 C 68 % 1016,5 hPa 0,0 l/m 2 min 0 min 912 W/m 6,4 km/h (2 Bft) 100,00 %
26.06.2022 11:50 22,1 C 25,0 C 22,2 C 69 % 1016,6 hPa 0,0 l/m 2 min 0 min 977 W/m 19,3 km/h (3 Bft) 100,00 %
26.06.2022 11:52 22,1 C 24,4 C 22,2 C 67 % 1016,6 hPa 0,0 l/m 2 min 0 min 936 W/m 6,4 km/h (2 Bft) 100,00 %
26.06.2022 11:54 22,1 C 24,4 C 21,7 C 66 % 1016,6 hPa 0,0 l/m 2 min 0 min 947 W/m 12,9 km/h (3 Bft) 100,00 %
26.06.2022 11:56 22,2 C 24,4 C 21,1 C 65 % 1016,7 hPa 0,0 l/m 2 min 0 min 947 W/m 12,9 km/h (3 Bft) 100,00 %
26.06.2022 11:58 22,1 C 24,4 C 21,1 C 66 % 1016,7 hPa 0,0 l/m 2 min 0 min 943 W/m 9,7 km/h (2 Bft) 100,00 %
26.06.2022 12:00 22,1 C 24,4 C 20,6 C 65 % 1016,6 hPa 0,0 l/m 2 min 0 min 898 W/m 9,7 km/h (2 Bft) 100,00 %
26.06.2022 12:02 22,1 C 23,9 C 20,0 C 64 % 1016,5 hPa 0,0 l/m 2 min 0 min 757 W/m 9,7 km/h (2 Bft) 97,87 %
26.06.2022 12:04 22,0 C 23,9 C 20,0 C 65 % 1016,5 hPa 0,0 l/m 2 min 0 min 535 W/m 6,4 km/h (2 Bft) 97,96 %
26.06.2022 12:08 22,1 C 23,9 C 20,6 C 64 % 1016,7 hPa 0,0 l/m 4 min 0 min 552 W/m 6,4 km/h (2 Bft) 100,00 %
26.06.2022 12:10 22,1 C 23,9 C 20,6 C 63 % 1016,7 hPa 0,0 l/m 2 min 0 min 706 W/m 12,9 km/h (3 Bft) 100,00 %
26.06.2022 12:12 22,2 C 23,9 C 21,1 C 66 % 1016,7 hPa 0,0 l/m 2 min 0 min 746 W/m 6,4 km/h (2 Bft) 100,00 %
26.06.2022 12:14 22,2 C 23,9 C 21,1 C 66 % 1016,7 hPa 0,0 l/m 2 min 0 min 692 W/m 6,4 km/h (2 Bft) 100,00 %
26.06.2022 12:16 22,2 C 23,3 C 21,1 C 65 % 1016,7 hPa 0,0 l/m 2 min 0 min 587 W/m 12,9 km/h (3 Bft) 100,00 %
26.06.2022 12:18 22,2 C 23,3 C 20,6 C 65 % 1016,8 hPa 0,0 l/m 2 min 0 min 517 W/m 12,9 km/h (3 Bft) 100,00 %
26.06.2022 12:20 22,2 C 22,8 C 20,6 C 64 % 1016,8 hPa 0,0 l/m 2 min 0 min 562 W/m 9,7 km/h (2 Bft) 93,62 %
26.06.2022 12:22 22,1 C 22,8 C 20,6 C 65 % 1016,7 hPa 0,0 l/m 2 min 0 min 594 W/m 12,9 km/h (3 Bft) 97,87 %
26.06.2022 12:24 22,1 C 22,8 C 20,0 C 66 % 1016,7 hPa 0,0 l/m 2 min 0 min 520 W/m 6,4 km/h (2 Bft) 95,74 %
26.06.2022 12:26 22,0 C 22,8 C 20,0 C 67 % 1016,8 hPa 0,0 l/m 0 min 0 min 431 W/m 9,7 km/h (2 Bft) 97,87 %
26.06.2022 12:28 21,9 C 22,2 C 19,4 C 66 % 1016,7 hPa 0,0 l/m 0 min 0 min 375 W/m 6,4 km/h (2 Bft) 97,87 %
26.06.2022 12:30 21,9 C 22,2 C 19,4 C 67 % 1016,8 hPa 0,0 l/m 0 min 0 min 347 W/m 9,7 km/h (2 Bft) 95,65 %
26.06.2022 12:32 21,9 C 22,2 C 18,9 C 67 % 1016,8 hPa 0,0 l/m 0 min 0 min 337 W/m 9,7 km/h (2 Bft) 97,87 %
26.06.2022 12:34 21,8 C 21,7 C 18,9 C 67 % 1016,8 hPa 0,0 l/m 0 min 0 min 333 W/m 9,7 km/h (2 Bft) 93,62 %
26.06.2022 12:36 21,8 C 22,2 C 18,9 C 68 % 1016,8 hPa 0,0 l/m 0 min 0 min 337 W/m 9,7 km/h (2 Bft) 96,61 %
26.06.2022 12:38 21,8 C 22,2 C 18,9 C 68 % 1016,8 hPa 0,0 l/m 0 min 0 min 336 W/m 9,7 km/h (2 Bft) 97,14 %
26.06.2022 12:40 21,7 C 21,7 C 18,3 C 66 % 1016,8 hPa 0,0 l/m 0 min 0 min 333 W/m 12,9 km/h (3 Bft) 97,87 %
26.06.2022 12:42 21,6 C 21,7 C 18,3 C 67 % 1016,8 hPa 0,0 l/m 0 min 0 min 344 W/m 6,4 km/h (2 Bft) 97,83 %
26.06.2022 12:44 21,6 C 21,7 C 18,3 C 67 % 1016,8 hPa 0,0 l/m 0 min 0 min 366 W/m 6,4 km/h (2 Bft) 95,74 %
26.06.2022 12:46 21,5 C 21,7 C 18,3 C 67 % 1016,9 hPa 0,0 l/m 0 min 0 min 399 W/m 6,4 km/h (2 Bft) 97,87 %
26.06.2022 12:48 21,5 C 21,7 C 18,3 C 68 % 1016,9 hPa 0,0 l/m 0 min 0 min 391 W/m 6,4 km/h (2 Bft) 97,87 %
26.06.2022 12:50 21,5 C 21,7 C 18,3 C 68 % 1016,8 hPa 0,0 l/m 0 min 0 min 348 W/m 12,9 km/h (3 Bft) 93,62 %
26.06.2022 12:52 21,4 C 21,7 C 18,3 C 68 % 1016,8 hPa 0,0 l/m 0 min 0 min 320 W/m 6,4 km/h (2 Bft) 95,74 %
26.06.2022 12:54 21,4 C 21,1 C 18,3 C 67 % 1016,9 hPa 0,0 l/m 0 min 0 min 286 W/m 9,7 km/h (2 Bft) 95,65 %
26.06.2022 12:56 21,3 C 21,1 C 17,8 C 67 % 1016,9 hPa 0,0 l/m 0 min 0 min 257 W/m 9,7 km/h (2 Bft) 91,49 %
26.06.2022 12:58 21,2 C 21,1 C 17,8 C 67 % 1016,9 hPa 0,0 l/m 0 min 0 min 244 W/m 16,1 km/h (3 Bft) 95,74 %
26.06.2022 13:00 21,2 C 21,1 C 17,8 C 68 % 1016,8 hPa 0,0 l/m 0 min 0 min 257 W/m 6,4 km/h (2 Bft) 97,87 %
26.06.2022 13:02 21,2 C 21,1 C 17,8 C 69 % 1016,8 hPa 0,0 l/m 0 min 0 min 280 W/m 3,2 km/h (1 Bft) 93,62 %
26.06.2022 13:04 21,2 C 21,1 C 17,8 C 70 % 1016,9 hPa 0,0 l/m 0 min 0 min 299 W/m 6,4 km/h (2 Bft) 97,87 %
26.06.2022 13:06 21,1 C 21,1 C 17,8 C 70 % 1016,9 hPa 0,0 l/m 0 min 0 min 313 W/m 9,7 km/h (2 Bft) 94,83 %
26.06.2022 13:08 21,1 C 21,1 C 17,8 C 69 % 1016,9 hPa 0,0 l/m 0 min 0 min 319 W/m 12,9 km/h (3 Bft) 91,43 %
26.06.2022 13:10 21,1 C 21,1 C 17,8 C 69 % 1016,8 hPa 0,0 l/m 0 min 0 min 315 W/m 9,7 km/h (2 Bft) 95,74 %
26.06.2022 13:12 21,1 C 21,1 C 17,8 C 70 % 1016,9 hPa 0,0 l/m 0 min 0 min 312 W/m 6,4 km/h (2 Bft) 95,74 %
26.06.2022 13:14 21,0 C 20,6 C 17,8 C 69 % 1016,9 hPa 0,0 l/m 0 min 2 min 307 W/m 9,7 km/h (2 Bft) 95,74 %
26.06.2022 13:16 20,9 C 21,1 C 17,8 C 69 % 1016,9 hPa 0,0 l/m 0 min 0 min 328 W/m 6,4 km/h (2 Bft) 93,48 %
26.06.2022 13:18 20,9 C 21,1 C 17,8 C 70 % 1016,9 hPa 0,0 l/m 0 min 0 min 367 W/m 3,2 km/h (1 Bft) 95,74 %
26.06.2022 13:20 21,0 C 21,1 C 17,8 C 70 % 1017,0 hPa 0,0 l/m 0 min 0 min 403 W/m 6,4 km/h (2 Bft) 95,74 %
26.06.2022 13:22 21,1 C 21,7 C 18,3 C 71 % 1017,0 hPa 0,0 l/m 0 min 0 min 424 W/m 9,7 km/h (2 Bft) 91,49 %
26.06.2022 13:24 21,1 C 21,1 C 18,3 C 71 % 1017,0 hPa 0,0 l/m 0 min 2 min 390 W/m 16,1 km/h (3 Bft) 95,74 %
26.06.2022 13:26 21,0 C 21,1 C 18,3 C 72 % 1017,0 hPa 0,0 l/m 0 min 2 min 368 W/m 6,4 km/h (2 Bft) 95,74 %
26.06.2022 13:28 21,1 C 21,1 C 17,8 C 73 % 1017,0 hPa 0,0 l/m 0 min 0 min 316 W/m 9,7 km/h (2 Bft) 95,74 %
26.06.2022 13:30 21,0 C 20,6 C 17,8 C 73 % 1017,0 hPa 0,0 l/m 0 min 2 min 259 W/m 12,9 km/h (3 Bft) 95,65 %
26.06.2022 13:32 20,9 C 20,6 C 17,2 C 74 % 1017,0 hPa 0,0 l/m 0 min 2 min 213 W/m 9,7 km/h (2 Bft) 93,62 %
26.06.2022 13:34 20,9 C 20,6 C 17,2 C 76 % 1017,1 hPa 0,0 l/m 0 min 2 min 192 W/m 3,2 km/h (1 Bft) 95,74 %
26.06.2022 13:36 20,9 C 20,6 C 16,7 C 76 % 1017,1 hPa 0,0 l/m 0 min 2 min 179 W/m 9,7 km/h (2 Bft) 94,92 %
26.06.2022 13:38 20,8 C 20,0 C 16,1 C 76 % 1017,1 hPa 0,0 l/m 0 min 2 min 171 W/m 9,7 km/h (2 Bft) 94,29 %
26.06.2022 13:40 20,7 C 20,0 C 16,1 C 77 % 1017,0 hPa 0,0 l/m 0 min 2 min 172 W/m 3,2 km/h (1 Bft) 97,87 %
26.06.2022 13:42 20,7 C 20,0 C 16,1 C 78 % 1017,0 hPa 0,0 l/m 0 min 2 min 181 W/m 9,7 km/h (2 Bft) 97,83 %
26.06.2022 13:44 20,7 C 20,0 C 15,6 C 78 % 1017,0 hPa 0,0 l/m 0 min 2 min 194 W/m 6,4 km/h (2 Bft) 97,87 %
26.06.2022 13:46 20,6 C 20,0 C 15,6 C 79 % 1017,0 hPa 0,0 l/m 0 min 2 min 197 W/m 6,4 km/h (2 Bft) 95,74 %
26.06.2022 13:48 20,4 C 19,4 C 15,0 C 78 % 1017,0 hPa 0,0 l/m 0 min 2 min 194 W/m 6,4 km/h (2 Bft) 97,87 %
26.06.2022 13:50 20,3 C 19,4 C 15,0 C 79 % 1017,0 hPa 0,0 l/m 0 min 2 min 210 W/m 3,2 km/h (1 Bft) 97,87 %
26.06.2022 13:52 20,3 C 19,4 C 15,0 C 79 % 1017,0 hPa 0,0 l/m 0 min 2 min 238 W/m 6,4 km/h (2 Bft) 100,00 %
26.06.2022 13:54 20,2 C 19,4 C 15,0 C 79 % 1016,9 hPa 0,0 l/m 0 min 2 min 264 W/m 6,4 km/h (2 Bft) 100,00 %
26.06.2022 13:56 20,3 C 20,0 C 15,0 C 81 % 1016,9 hPa 0,0 l/m 0 min 2 min 301 W/m 9,7 km/h (2 Bft) 100,00 %
26.06.2022 13:58 20,3 C 20,0 C 15,6 C 81 % 1016,9 hPa 0,0 l/m 0 min 2 min 349 W/m 6,4 km/h (2 Bft) 100,00 %
26.06.2022 14:00 20,3 C 20,0 C 16,1 C 81 % 1016,9 hPa 0,0 l/m 0 min 2 min 373 W/m 3,2 km/h (1 Bft) 100,00 %
26.06.2022 14:02 20,3 C 20,0 C 16,1 C 80 % 1016,8 hPa 0,0 l/m 0 min 0 min 367 W/m 6,4 km/h (2 Bft) 100,00 %
26.06.2022 14:04 20,2 C 20,6 C 16,7 C 79 % 1016,8 hPa 0,0 l/m 0 min 0 min 382 W/m 3,2 km/h (1 Bft) 100,00 %
26.06.2022 14:06 20,2 C 21,1 C 16,7 C 78 % 1016,8 hPa 0,0 l/m 0 min 0 min 398 W/m 3,2 km/h (1 Bft) 95,65 %
26.06.2022 14:08 20,3 C 21,1 C 17,2 C 78 % 1016,8 hPa 0,0 l/m 0 min 0 min 379 W/m 6,4 km/h (2 Bft) 100,00 %
26.06.2022 14:10 20,3 C 21,1 C 17,2 C 78 % 1016,8 hPa 0,0 l/m 0 min 0 min 398 W/m 6,4 km/h (2 Bft) 100,00 %
26.06.2022 14:12 20,3 C 21,1 C 17,2 C 77 % 1016,9 hPa 0,0 l/m 0 min 0 min 340 W/m 9,7 km/h (2 Bft) 100,00 %
26.06.2022 14:14 20,3 C 21,1 C 17,2 C 77 % 1016,8 hPa 0,0 l/m 0 min 0 min 276 W/m 3,2 km/h (1 Bft) 100,00 %
26.06.2022 14:16 20,3 C 20,6 C 17,2 C 77 % 1016,8 hPa 0,0 l/m 0 min 0 min 265 W/m 6,4 km/h (2 Bft) 97,83 %
26.06.2022 14:18 20,3 C 20,6 C 17,2 C 76 % 1016,8 hPa 0,0 l/m 0 min 0 min 234 W/m 3,2 km/h (1 Bft) 100,00 %
26.06.2022 14:20 20,3 C 20,6 C 17,2 C 77 % 1016,7 hPa 0,0 l/m 0 min 0 min 184 W/m 3,2 km/h (1 Bft) 100,00 %
26.06.2022 14:22 20,3 C 20,0 C 17,2 C 77 % 1016,8 hPa 0,0 l/m 0 min 0 min 160 W/m 3,2 km/h (1 Bft) 100,00 %
26.06.2022 14:24 20,3 C 20,0 C 16,7 C 77 % 1016,8 hPa 0,0 l/m 0 min 0 min 145 W/m 3,2 km/h (1 Bft) 100,00 %
26.06.2022 14:26 20,2 C 20,0 C 16,7 C 76 % 1016,9 hPa 0,0 l/m 0 min 0 min 131 W/m 6,4 km/h (2 Bft) 97,87 %
26.06.2022 14:28 20,2 C 20,0 C 16,7 C 77 % 1016,9 hPa 0,0 l/m 0 min 0 min 135 W/m 3,2 km/h (1 Bft) 97,83 %
26.06.2022 14:30 20,2 C 20,0 C 16,7 C 77 % 1017,0 hPa 0,0 l/m 0 min 0 min 146 W/m 3,2 km/h (1 Bft) 100,00 %
26.06.2022 14:32 20,3 C 20,0 C 16,7 C 77 % 1017,0 hPa 0,0 l/m 0 min 0 min 149 W/m 6,4 km/h (2 Bft) 100,00 %
26.06.2022 14:34 20,3 C 20,0 C 16,7 C 75 % 1017,0 hPa 0,0 l/m 0 min 0 min 153 W/m 3,2 km/h (1 Bft) 100,00 %
26.06.2022 14:36 20,2 C 20,0 C 16,7 C 75 % 1017,0 hPa 0,0 l/m 0 min 0 min 157 W/m 3,2 km/h (1 Bft) 100,00 %
26.06.2022 14:38 20,2 C 20,0 C 16,7 C 75 % 1017,1 hPa 0,0 l/m 0 min 0 min 171 W/m 3,2 km/h (1 Bft) 100,00 %
26.06.2022 14:40 20,2 C 20,0 C 16,7 C 76 % 1017,1 hPa 0,0 l/m 0 min 0 min 183 W/m 3,2 km/h (1 Bft) 100,00 %
26.06.2022 14:42 20,2 C 20,0 C 16,7 C 76 % 1017,1 hPa 0,0 l/m 0 min 0 min 190 W/m 6,4 km/h (2 Bft) 100,00 %
26.06.2022 14:44 20,3 C 20,0 C 16,7 C 76 % 1017,2 hPa 0,0 l/m 0 min 0 min 212 W/m 3,2 km/h (1 Bft) 100,00 %
26.06.2022 14:46 20,3 C 20,0 C 16,7 C 76 % 1017,1 hPa 0,0 l/m 0 min 0 min 242 W/m 3,2 km/h (1 Bft) 97,87 %
26.06.2022 14:48 20,2 C 20,0 C 16,7 C 75 % 1017,2 hPa 0,0 l/m 0 min 0 min 260 W/m 9,7 km/h (2 Bft) 100,00 %
26.06.2022 14:50 20,2 C 20,6 C 16,7 C 75 % 1017,1 hPa 0,0 l/m 0 min 0 min 271 W/m 3,2 km/h (1 Bft) 100,00 %
26.06.2022 14:52 20,2 C 20,6 C 17,2 C 75 % 1017,2 hPa 0,0 l/m 0 min 0 min 280 W/m 6,4 km/h (2 Bft) 100,00 %
26.06.2022 14:54 20,3 C 20,6 C 17,2 C 75 % 1017,2 hPa 0,0 l/m 0 min 0 min 290 W/m 3,2 km/h (1 Bft) 95,74 %
26.06.2022 14:56 20,3 C 20,6 C 17,2 C 76 % 1017,2 hPa 0,0 l/m 0 min 0 min 285 W/m 3,2 km/h (1 Bft) 97,87 %
26.06.2022 14:58 20,4 C 21,1 C 17,2 C 75 % 1017,1 hPa 0,0 l/m 0 min 0 min 274 W/m 3,2 km/h (1 Bft) 97,83 %
26.06.2022 15:00 20,4 C 21,1 C 17,2 C 76 % 1017,1 hPa 0,0 l/m 0 min 0 min 276 W/m 6,4 km/h (2 Bft) 97,87 %
26.06.2022 15:02 20,4 C 21,1 C 17,2 C 76 % 1017,1 hPa 0,0 l/m 0 min 0 min 297 W/m 3,2 km/h (1 Bft) 97,87 %
26.06.2022 15:04 20,5 C 21,1 C 17,2 C 75 % 1017,0 hPa 0,0 l/m 0 min 0 min 310 W/m 3,2 km/h (1 Bft) 95,74 %
26.06.2022 15:06 20,5 C 21,1 C 17,2 C 74 % 1017,0 hPa 0,0 l/m 0 min 0 min 322 W/m 6,4 km/h (2 Bft) 95,74 %
26.06.2022 15:08 20,5 C 21,1 C 17,2 C 74 % 1017,0 hPa 0,0 l/m 0 min 0 min 326 W/m 9,7 km/h (2 Bft) 95,74 %
26.06.2022 15:10 20,5 C 21,1 C 17,2 C 74 % 1017,0 hPa 0,0 l/m 0 min 0 min 323 W/m 6,4 km/h (2 Bft) 93,62 %
26.06.2022 15:12 20,5 C 21,1 C 17,2 C 74 % 1017,0 hPa 0,0 l/m 0 min 0 min 322 W/m 6,4 km/h (2 Bft) 95,65 %
26.06.2022 15:14 20,6 C 21,1 C 17,2 C 74 % 1017,0 hPa 0,0 l/m 0 min 0 min 336 W/m 6,4 km/h (2 Bft) 95,74 %
26.06.2022 15:16 20,6 C 21,1 C 17,2 C 74 % 1016,9 hPa 0,0 l/m 0 min 0 min 366 W/m 6,4 km/h (2 Bft) 95,74 %
26.06.2022 15:18 20,6 C 21,1 C 17,2 C 73 % 1016,8 hPa 0,0 l/m 0 min 0 min 389 W/m 3,2 km/h (1 Bft) 97,87 %
26.06.2022 15:20 20,6 C 21,1 C 17,2 C 72 % 1016,8 hPa 0,0 l/m 0 min 0 min 414 W/m 3,2 km/h (1 Bft) 95,74 %
26.06.2022 15:22 20,6 C 21,1 C 17,2 C 72 % 1016,7 hPa 0,0 l/m 0 min 0 min 419 W/m 6,4 km/h (2 Bft) 95,65 %
26.06.2022 15:24 20,6 C 21,7 C 17,8 C 71 % 1016,7 hPa 0,0 l/m 2 min 0 min 428 W/m 6,4 km/h (2 Bft) 95,74 %
26.06.2022 15:26 20,6 C 21,7 C 17,8 C 72 % 1016,6 hPa 0,0 l/m 2 min 0 min 430 W/m 3,2 km/h (1 Bft) 93,62 %
26.06.2022 15:28 20,7 C 22,2 C 17,8 C 72 % 1016,6 hPa 0,0 l/m 2 min 0 min 433 W/m 3,2 km/h (1 Bft) 95,74 %
26.06.2022 15:30 20,8 C 22,2 C 17,8 C 72 % 1016,6 hPa 0,0 l/m 2 min 0 min 474 W/m 6,4 km/h (2 Bft) 95,74 %
26.06.2022 15:32 20,9 C 22,2 C 17,8 C 72 % 1016,5 hPa 0,0 l/m 2 min 0 min 488 W/m 6,4 km/h (2 Bft) 93,62 %
26.06.2022 15:34 21,1 C 22,2 C 17,8 C 73 % 1016,5 hPa 0,0 l/m 2 min 0 min 426 W/m 6,4 km/h (2 Bft) 95,65 %
26.06.2022 15:36 21,1 C 22,2 C 17,8 C 72 % 1016,5 hPa 0,0 l/m 0 min 0 min 392 W/m 6,4 km/h (2 Bft) 97,87 %
26.06.2022 15:38 21,2 C 22,8 C 17,8 C 72 % 1016,5 hPa 0,0 l/m 0 min 0 min 379 W/m 6,4 km/h (2 Bft) 97,87 %
26.06.2022 15:40 21,3 C 22,8 C 17,8 C 71 % 1016,4 hPa 0,0 l/m 0 min 0 min 369 W/m 9,7 km/h (2 Bft) 95,74 %
26.06.2022 15:42 21,3 C 22,8 C 17,8 C 71 % 1016,4 hPa 0,0 l/m 0 min 0 min 381 W/m 9,7 km/h (2 Bft) 100,00 %
26.06.2022 15:44 21,4 C 22,8 C 17,8 C 70 % 1016,4 hPa 0,0 l/m 2 min 0 min 410 W/m 6,4 km/h (2 Bft) 100,00 %
26.06.2022 15:46 21,4 C 22,8 C 18,3 C 70 % 1016,5 hPa 0,0 l/m 2 min 0 min 495 W/m 9,7 km/h (2 Bft) 97,83 %
26.06.2022 15:48 21,6 C 22,8 C 18,3 C 70 % 1016,5 hPa 0,0 l/m 2 min 0 min 488 W/m 6,4 km/h (2 Bft) 95,74 %
26.06.2022 15:50 21,6 C 22,8 C 18,3 C 70 % 1016,6 hPa 0,0 l/m 0 min 0 min 403 W/m 9,7 km/h (2 Bft) 100,00 %
26.06.2022 15:52 21,6 C 22,8 C 18,3 C 70 % 1016,6 hPa 0,0 l/m 0 min 0 min 343 W/m 6,4 km/h (2 Bft) 100,00 %
26.06.2022 15:54 21,6 C 22,2 C 18,3 C 70 % 1016,7 hPa 0,0 l/m 0 min 0 min 290 W/m 12,9 km/h (3 Bft) 100,00 %
26.06.2022 15:56 21,6 C 22,2 C 17,8 C 69 % 1016,8 hPa 0,0 l/m 0 min 0 min 273 W/m 6,4 km/h (2 Bft) 100,00 %
26.06.2022 15:58 21,6 C 22,2 C 17,8 C 69 % 1016,7 hPa 0,0 l/m 0 min 0 min 270 W/m 6,4 km/h (2 Bft) 97,87 %
26.06.2022 16:00 21,7 C 22,2 C 17,8 C 69 % 1016,8 hPa 0,0 l/m 0 min 0 min 265 W/m 3,2 km/h (1 Bft) 100,00 %
26.06.2022 16:02 21,7 C 22,2 C 17,8 C 69 % 1016,7 hPa 0,0 l/m 0 min 0 min 260 W/m 6,4 km/h (2 Bft) 100,00 %
26.06.2022 16:04 21,7 C 21,7 C 17,8 C 69 % 1016,7 hPa 0,0 l/m 0 min 0 min 242 W/m 6,4 km/h (2 Bft) 100,00 %
26.06.2022 16:06 21,7 C 21,7 C 17,8 C 69 % 1016,8 hPa 0,0 l/m 0 min 0 min 215 W/m 6,4 km/h (2 Bft) 97,87 %
26.06.2022 16:08 21,6 C 21,1 C 17,8 C 68 % 1016,7 hPa 0,0 l/m 0 min 0 min 194 W/m 16,1 km/h (3 Bft) 100,00 %
26.06.2022 16:10 21,5 C 20,6 C 17,2 C 68 % 1016,7 hPa 0,0 l/m 0 min 0 min 195 W/m 12,9 km/h (3 Bft) 97,87 %
26.06.2022 16:12 21,4 C 20,6 C 17,2 C 69 % 1016,7 hPa 0,0 l/m 0 min 0 min 188 W/m 9,7 km/h (2 Bft) 95,65 %
26.06.2022 16:14 21,4 C 20,6 C 17,2 C 69 % 1016,6 hPa 0,0 l/m 0 min 0 min 185 W/m 6,4 km/h (2 Bft) 97,87 %
26.06.2022 16:16 21,3 C 20,6 C 17,2 C 69 % 1016,6 hPa 0,0 l/m 0 min 0 min 207 W/m 6,4 km/h (2 Bft) 97,87 %
26.06.2022 16:18 21,3 C 20,6 C 17,2 C 70 % 1016,5 hPa 0,0 l/m 0 min 0 min 205 W/m 12,9 km/h (3 Bft) 97,87 %
26.06.2022 16:20 21,2 C 20,6 C 17,2 C 70 % 1016,6 hPa 0,0 l/m 0 min 0 min 158 W/m 6,4 km/h (2 Bft) 97,87 %
26.06.2022 16:22 21,2 C 20,6 C 17,2 C 70 % 1016,6 hPa 0,0 l/m 0 min 0 min 122 W/m 9,7 km/h (2 Bft) 97,87 %
26.06.2022 16:24 21,1 C 20,6 C 16,7 C 71 % 1016,7 hPa 0,0 l/m 0 min 0 min 110 W/m 6,4 km/h (2 Bft) 97,87 %
26.06.2022 16:26 21,1 C 20,0 C 16,7 C 71 % 1016,7 hPa 0,0 l/m 0 min 0 min 110 W/m 6,4 km/h (2 Bft) 97,83 %
26.06.2022 16:28 21,0 C 20,0 C 16,7 C 71 % 1016,6 hPa 0,0 l/m 0 min 0 min 116 W/m 3,2 km/h (1 Bft) 97,87 %
26.06.2022 16:30 20,9 C 20,0 C 16,7 C 71 % 1016,6 hPa 0,0 l/m 0 min 0 min 122 W/m 3,2 km/h (1 Bft) 95,74 %
26.06.2022 16:32 20,9 C 20,0 C 16,7 C 71 % 1016,6 hPa 0,0 l/m 0 min 0 min 127 W/m 6,4 km/h (2 Bft) 97,87 %
26.06.2022 16:34 20,9 C 20,0 C 16,7 C 71 % 1016,7 hPa 0,0 l/m 0 min 0 min 127 W/m 9,7 km/h (2 Bft) 95,74 %
26.06.2022 16:36 20,9 C 20,0 C 16,7 C 71 % 1016,7 hPa 0,0 l/m 0 min 0 min 132 W/m 12,9 km/h (3 Bft) 97,83 %
26.06.2022 16:38 20,8 C 20,0 C 16,1 C 71 % 1016,7 hPa 0,0 l/m 0 min 0 min 138 W/m 6,4 km/h (2 Bft) 97,87 %
26.06.2022 16:40 20,8 C 20,0 C 16,1 C 72 % 1016,6 hPa 0,0 l/m 0 min 2 min 145 W/m 3,2 km/h (1 Bft) 97,87 %
26.06.2022 16:42 20,8 C 20,0 C 16,1 C 73 % 1016,6 hPa 0,0 l/m 0 min 2 min 156 W/m 3,2 km/h (1 Bft) 95,74 %
26.06.2022 16:44 20,8 C 20,6 C 16,1 C 74 % 1016,5 hPa 0,0 l/m 0 min 0 min 161 W/m 6,4 km/h (2 Bft) 93,62 %
26.06.2022 16:46 20,8 C 20,0 C 16,1 C 73 % 1016,6 hPa 0,0 l/m 0 min 0 min 151 W/m 12,9 km/h (3 Bft) 95,74 %
26.06.2022 16:48 20,8 C 20,0 C 16,1 C 73 % 1016,6 hPa 0,0 l/m 0 min 0 min 133 W/m 9,7 km/h (2 Bft) 95,65 %
26.06.2022 16:50 20,7 C 20,0 C 16,1 C 72 % 1016,6 hPa 0,0 l/m 0 min 0 min 106 W/m 6,4 km/h (2 Bft) 97,87 %
26.06.2022 16:52 20,7 C 20,0 C 16,1 C 72 % 1016,7 hPa 0,0 l/m 0 min 0 min 78 W/m 6,4 km/h (2 Bft) 95,74 %
26.06.2022 16:54 20,6 C 19,4 C 16,1 C 72 % 1016,7 hPa 0,0 l/m 0 min 0 min 65 W/m 6,4 km/h (2 Bft) 97,87 %
26.06.2022 16:56 20,6 C 19,4 C 16,1 C 72 % 1016,7 hPa 0,0 l/m 0 min 0 min 63 W/m 6,4 km/h (2 Bft) 97,87 %
26.06.2022 16:58 20,6 C 19,4 C 16,1 C 72 % 1016,7 hPa 0,0 l/m 0 min 0 min 63 W/m 6,4 km/h (2 Bft) 95,74 %
26.06.2022 17:00 20,5 C 19,4 C 16,1 C 72 % 1016,6 hPa 0,0 l/m 0 min 0 min 66 W/m 6,4 km/h (2 Bft) 95,65 %
26.06.2022 17:02 20,4 C 19,4 C 16,1 C 73 % 1016,6 hPa 0,0 l/m 0 min 0 min 74 W/m 3,2 km/h (1 Bft) 97,87 %
26.06.2022 17:04 20,4 C 19,4 C 16,1 C 73 % 1016,5 hPa 0,0 l/m 0 min 0 min 84 W/m 6,4 km/h (2 Bft) 97,87 %
26.06.2022 17:06 20,4 C 19,4 C 16,1 C 73 % 1016,4 hPa 0,0 l/m 0 min 0 min 96 W/m 6,4 km/h (2 Bft) 100,00 %
26.06.2022 17:08 20,3 C 19,4 C 16,1 C 73 % 1016,4 hPa 0,0 l/m 0 min 0 min 117 W/m 9,7 km/h (2 Bft) 97,87 %
26.06.2022 17:10 20,3 C 19,4 C 16,1 C 73 % 1016,4 hPa 0,0 l/m 0 min 0 min 138 W/m 3,2 km/h (1 Bft) 97,87 %
26.06.2022 17:12 20,3 C 20,0 C 16,1 C 74 % 1016,3 hPa 0,0 l/m 0 min 0 min 152 W/m 6,4 km/h (2 Bft) 97,83 %
26.06.2022 17:14 20,4 C 20,0 C 16,1 C 75 % 1016,3 hPa 0,0 l/m 0 min 0 min 185 W/m 3,2 km/h (1 Bft) 97,87 %
26.06.2022 17:16 20,4 C 20,0 C 16,7 C 75 % 1016,3 hPa 0,0 l/m 0 min 0 min 198 W/m 0,0 km/h (0 Bft) 97,87 %
26.06.2022 17:18 20,4 C 20,0 C 16,7 C 75 % 1016,3 hPa 0,0 l/m 0 min 0 min 170 W/m 6,4 km/h (2 Bft) 97,87 %
26.06.2022 17:20 20,4 C 20,0 C 16,7 C 74 % 1016,3 hPa 0,0 l/m 0 min 0 min 146 W/m 3,2 km/h (1 Bft) 97,87 %
26.06.2022 17:22 20,4 C 20,0 C 16,7 C 74 % 1016,4 hPa 0,0 l/m 0 min 0 min 135 W/m 3,2 km/h (1 Bft) 97,87 %
26.06.2022 17:24 20,3 C 20,0 C 16,7 C 72 % 1016,4 hPa 0,0 l/m 0 min 0 min 113 W/m 3,2 km/h (1 Bft) 97,83 %
26.06.2022 17:26 20,3 C 20,0 C 16,7 C 71 % 1016,4 hPa 0,0 l/m 0 min 0 min 93 W/m 6,4 km/h (2 Bft) 93,62 %
26.06.2022 17:28 20,3 C 20,0 C 16,7 C 71 % 1016,4 hPa 0,0 l/m 0 min 0 min 79 W/m 6,4 km/h (2 Bft) 93,62 %
26.06.2022 17:30 20,3 C 20,0 C 16,7 C 71 % 1016,5 hPa 0,0 l/m 0 min 0 min 68 W/m 6,4 km/h (2 Bft) 95,74 %
26.06.2022 17:32 20,2 C 19,4 C 16,7 C 71 % 1016,5 hPa 0,0 l/m 0 min 0 min 59 W/m 3,2 km/h (1 Bft) 95,74 %
26.06.2022 17:34 20,2 C 19,4 C 16,1 C 70 % 1016,4 hPa 0,0 l/m 0 min 0 min 56 W/m 6,4 km/h (2 Bft) 95,74 %
26.06.2022 17:36 20,2 C 19,4 C 16,1 C 68 % 1016,3 hPa 0,0 l/m 0 min 0 min 57 W/m 6,4 km/h (2 Bft) 95,65 %
26.06.2022 17:38 20,2 C 19,4 C 16,1 C 68 % 1016,3 hPa 0,0 l/m 0 min 0 min 59 W/m 3,2 km/h (1 Bft) 95,74 %
26.06.2022 17:40 20,2 C 19,4 C 16,1 C 68 % 1016,2 hPa 0,0 l/m 0 min 0 min 66 W/m 3,2 km/h (1 Bft) 95,74 %
26.06.2022 17:42 20,2 C 19,4 C 16,1 C 68 % 1016,1 hPa 0,0 l/m 0 min 0 min 80 W/m 3,2 km/h (1 Bft) 95,74 %
26.06.2022 17:44 20,2 C 19,4 C 16,1 C 68 % 1016,2 hPa 0,0 l/m 0 min 0 min 86 W/m 6,4 km/h (2 Bft) 93,62 %
26.06.2022 17:46 20,1 C 19,4 C 16,1 C 68 % 1016,2 hPa 0,0 l/m 0 min 0 min 90 W/m 3,2 km/h (1 Bft) 97,87 %
26.06.2022 17:48 20,2 C 19,4 C 16,7 C 67 % 1016,3 hPa 0,0 l/m 0 min 0 min 96 W/m 3,2 km/h (1 Bft) 97,83 %
26.06.2022 17:50 20,1 C 19,4 C 16,1 C 67 % 1016,2 hPa 0,0 l/m 0 min 0 min 91 W/m 6,4 km/h (2 Bft) 97,87 %
26.06.2022 17:52 20,1 C 19,4 C 16,1 C 67 % 1016,2 hPa 0,0 l/m 0 min 0 min 86 W/m 6,4 km/h (2 Bft) 97,87 %
26.06.2022 17:54 20,1 C 19,4 C 16,1 C 67 % 1016,2 hPa 0,0 l/m 0 min 0 min 86 W/m 3,2 km/h (1 Bft) 97,87 %
26.06.2022 17:56 20,2 C 19,4 C 16,1 C 68 % 1016,1 hPa 0,0 l/m 0 min 0 min 87 W/m 3,2 km/h (1 Bft) 95,74 %
26.06.2022 17:58 20,2 C 19,4 C 16,1 C 69 % 1016,1 hPa 0,0 l/m 0 min 0 min 83 W/m 3,2 km/h (1 Bft) 97,87 %
26.06.2022 18:02 20,2 C 19,4 C 16,1 C 70 % 1016,1 hPa 0,0 l/m 0 min 0 min 78 W/m 3,2 km/h (1 Bft) 96,77 %
26.06.2022 18:04 20,2 C 19,4 C 16,1 C 70 % 1016,1 hPa 0,0 l/m 0 min 0 min 75 W/m 3,2 km/h (1 Bft) 97,87 %
26.06.2022 18:08 20,3 C 19,4 C 16,1 C 72 % 1016,1 hPa 0,0 l/m 0 min 0 min 78 W/m 3,2 km/h (1 Bft) 97,75 %
26.06.2022 18:10 20,3 C 19,4 C 16,1 C 71 % 1016,1 hPa 0,0 l/m 0 min 0 min 82 W/m 3,2 km/h (1 Bft) 97,83 %
26.06.2022 18:12 20,3 C 19,4 C 16,1 C 71 % 1016,1 hPa 0,0 l/m 0 min 0 min 83 W/m 6,4 km/h (2 Bft) 100,00 %
26.06.2022 18:14 20,3 C 19,4 C 16,1 C 71 % 1016,1 hPa 0,0 l/m 0 min 0 min 79 W/m 3,2 km/h (1 Bft) 100,00 %
26.06.2022 18:16 20,3 C 19,4 C 16,1 C 72 % 1016,1 hPa 0,0 l/m 0 min 0 min 78 W/m 3,2 km/h (1 Bft) 100,00 %
26.06.2022 18:18 20,3 C 19,4 C 16,1 C 70 % 1016,1 hPa 0,0 l/m 0 min 0 min 84 W/m 3,2 km/h (1 Bft) 100,00 %
26.06.2022 18:20 20,2 C 20,0 C 16,1 C 70 % 1016,1 hPa 0,0 l/m 0 min 0 min 85 W/m 0,0 km/h (0 Bft) 100,00 %
26.06.2022 18:22 20,2 C 20,0 C 16,1 C 70 % 1016,1 hPa 0,0 l/m 0 min 0 min 84 W/m 0,0 km/h (0 Bft) 97,83 %
26.06.2022 18:24 20,2 C 20,0 C 16,7 C 70 % 1016,1 hPa 0,0 l/m 0 min 0 min 90 W/m 6,4 km/h (2 Bft) 100,00 %
26.06.2022 18:26 20,2 C 20,0 C 16,7 C 69 % 1016,1 hPa 0,0 l/m 0 min 0 min 96 W/m 9,7 km/h (2 Bft) 100,00 %
26.06.2022 18:28 20,2 C 20,0 C 16,7 C 68 % 1016,0 hPa 0,0 l/m 0 min 0 min 105 W/m 3,2 km/h (1 Bft) 100,00 %
26.06.2022 18:30 20,2 C 20,0 C 16,7 C 67 % 1016,0 hPa 0,0 l/m 0 min 0 min 129 W/m 3,2 km/h (1 Bft) 100,00 %
26.06.2022 18:32 20,2 C 20,0 C 16,7 C 66 % 1015,9 hPa 0,0 l/m 0 min 0 min 178 W/m 3,2 km/h (1 Bft) 97,87 %
26.06.2022 18:34 20,2 C 20,6 C 16,7 C 66 % 1015,8 hPa 0,0 l/m 0 min 0 min 236 W/m 3,2 km/h (1 Bft) 100,00 %
26.06.2022 18:36 20,3 C 20,6 C 16,7 C 66 % 1015,6 hPa 0,0 l/m 2 min 0 min 286 W/m 3,2 km/h (1 Bft) 100,00 %
26.06.2022 18:38 20,3 C 21,7 C 17,2 C 66 % 1015,6 hPa 0,0 l/m 2 min 0 min 314 W/m 3,2 km/h (1 Bft) 100,00 %
26.06.2022 18:40 20,4 C 21,7 C 17,2 C 65 % 1015,6 hPa 0,0 l/m 2 min 0 min 289 W/m 3,2 km/h (1 Bft) 100,00 %
26.06.2022 18:42 20,5 C 21,7 C 17,2 C 66 % 1015,7 hPa 0,0 l/m 2 min 0 min 248 W/m 3,2 km/h (1 Bft) 100,00 %
26.06.2022 18:44 20,6 C 21,7 C 17,2 C 65 % 1015,6 hPa 0,0 l/m 0 min 0 min 222 W/m 6,4 km/h (2 Bft) 100,00 %
26.06.2022 18:46 20,7 C 21,7 C 17,2 C 66 % 1015,6 hPa 0,0 l/m 0 min 0 min 212 W/m 3,2 km/h (1 Bft) 100,00 %
26.06.2022 18:48 20,7 C 21,1 C 17,2 C 65 % 1015,5 hPa 0,0 l/m 0 min 0 min 200 W/m 3,2 km/h (1 Bft) 100,00 %
26.06.2022 18:50 20,7 C 21,1 C 17,2 C 65 % 1015,5 hPa 0,0 l/m 0 min 0 min 194 W/m 6,4 km/h (2 Bft) 100,00 %
26.06.2022 18:52 20,8 C 21,1 C 17,2 C 63 % 1015,5 hPa 0,0 l/m 0 min 0 min 196 W/m 3,2 km/h (1 Bft) 97,87 %
26.06.2022 18:54 20,8 C 21,1 C 17,2 C 63 % 1015,5 hPa 0,0 l/m 0 min 0 min 183 W/m 3,2 km/h (1 Bft) 100,00 %
26.06.2022 18:56 20,8 C 21,1 C 16,7 C 64 % 1015,5 hPa 0,0 l/m 0 min 0 min 190 W/m 3,2 km/h (1 Bft) 100,00 %
26.06.2022 18:58 20,8 C 21,1 C 16,7 C 63 % 1015,6 hPa 0,0 l/m 2 min 0 min 210 W/m 3,2 km/h (1 Bft) 100,00 %
26.06.2022 19:00 20,8 C 21,1 C 16,7 C 63 % 1015,5 hPa 0,0 l/m 0 min 0 min 204 W/m 0,0 km/h (0 Bft) 97,87 %
26.06.2022 19:02 20,9 C 21,1 C 16,7 C 64 % 1015,5 hPa 0,0 l/m 0 min 0 min 173 W/m 3,2 km/h (1 Bft) 97,87 %
26.06.2022 19:04 20,9 C 21,1 C 16,7 C 63 % 1015,5 hPa 0,0 l/m 0 min 0 min 134 W/m 3,2 km/h (1 Bft) 100,00 %
26.06.2022 19:06 20,9 C 21,1 C 16,7 C 64 % 1015,5 hPa 0,0 l/m 0 min 0 min 112 W/m 3,2 km/h (1 Bft) 100,00 %
26.06.2022 19:08 20,9 C 20,6 C 16,7 C 63 % 1015,5 hPa 0,0 l/m 0 min 0 min 105 W/m 3,2 km/h (1 Bft) 100,00 %
26.06.2022 19:10 20,9 C 20,6 C 16,7 C 63 % 1015,5 hPa 0,0 l/m 0 min 0 min 106 W/m 3,2 km/h (1 Bft) 97,87 %
26.06.2022 19:12 20,9 C 20,6 C 16,7 C 63 % 1015,5 hPa 0,0 l/m 0 min 0 min 103 W/m 3,2 km/h (1 Bft) 95,74 %
26.06.2022 19:14 20,9 C 20,6 C 16,7 C 63 % 1015,6 hPa 0,0 l/m 0 min 0 min 105 W/m 0,0 km/h (0 Bft) 97,83 %
26.06.2022 19:16 20,9 C 20,6 C 17,2 C 63 % 1015,6 hPa 0,0 l/m 0 min 0 min 101 W/m 0,0 km/h (0 Bft) 97,87 %
26.06.2022 19:18 20,9 C 20,6 C 16,7 C 63 % 1015,6 hPa 0,0 l/m 0 min 0 min 93 W/m 0,0 km/h (0 Bft) 95,74 %
26.06.2022 19:20 20,9 C 20,6 C 16,7 C 65 % 1015,7 hPa 0,0 l/m 0 min 0 min 77 W/m 0,0 km/h (0 Bft) 95,74 %
26.06.2022 19:22 21,0 C 20,6 C 16,7 C 64 % 1015,7 hPa 0,0 l/m 0 min 0 min 64 W/m 0,0 km/h (0 Bft) 93,62 %
26.06.2022 19:24 21,0 C 20,6 C 16,7 C 66 % 1015,7 hPa 0,0 l/m 0 min 0 min 56 W/m 3,2 km/h (1 Bft) 91,49 %
26.06.2022 19:26 20,9 C 20,0 C 16,7 C 65 % 1015,6 hPa 0,0 l/m 0 min 0 min 49 W/m 3,2 km/h (1 Bft) 93,48 %
26.06.2022 19:28 20,9 C 20,0 C 16,1 C 67 % 1015,6 hPa 0,0 l/m 0 min 0 min 45 W/m 3,2 km/h (1 Bft) 95,74 %
26.06.2022 19:30 20,9 C 20,0 C 16,1 C 67 % 1015,7 hPa 0,0 l/m 0 min 0 min 42 W/m 3,2 km/h (1 Bft) 95,74 %
26.06.2022 19:32 20,9 C 20,0 C 16,1 C 68 % 1015,6 hPa 0,0 l/m 0 min 0 min 46 W/m 3,2 km/h (1 Bft) 93,62 %
26.06.2022 19:34 20,9 C 20,0 C 16,1 C 67 % 1015,6 hPa 0,0 l/m 0 min 0 min 50 W/m 0,0 km/h (0 Bft) 95,74 %
26.06.2022 19:36 20,9 C 20,0 C 16,1 C 68 % 1015,5 hPa 0,0 l/m 0 min 0 min 56 W/m 3,2 km/h (1 Bft) 95,74 %
26.06.2022 19:38 20,9 C 20,0 C 16,1 C 68 % 1015,5 hPa 0,0 l/m 0 min 0 min 63 W/m 3,2 km/h (1 Bft) 95,65 %
26.06.2022 19:40 20,9 C 20,0 C 16,1 C 69 % 1015,5 hPa 0,0 l/m 0 min 0 min 68 W/m 3,2 km/h (1 Bft) 95,74 %
26.06.2022 19:42 20,8 C 20,0 C 16,1 C 69 % 1015,4 hPa 0,0 l/m 0 min 0 min 74 W/m 3,2 km/h (1 Bft) 95,74 %
26.06.2022 19:44 20,8 C 20,0 C 16,1 C 68 % 1015,4 hPa 0,0 l/m 0 min 0 min 75 W/m 0,0 km/h (0 Bft) 95,74 %
26.06.2022 19:46 20,8 C 20,0 C 16,1 C 69 % 1015,4 hPa 0,0 l/m 0 min 0 min 69 W/m 0,0 km/h (0 Bft) 97,87 %
26.06.2022 19:48 20,7 C 20,0 C 16,1 C 69 % 1015,4 hPa 0,0 l/m 0 min 0 min 62 W/m 3,2 km/h (1 Bft) 97,87 %
26.06.2022 19:50 20,7 C 20,0 C 16,1 C 69 % 1015,3 hPa 0,0 l/m 0 min 0 min 53 W/m 0,0 km/h (0 Bft) 95,65 %
26.06.2022 19:52 20,7 C 20,0 C 16,1 C 70 % 1015,4 hPa 0,0 l/m 0 min 0 min 42 W/m 0,0 km/h (0 Bft) 97,87 %
26.06.2022 19:54 20,6 C 19,4 C 16,1 C 70 % 1015,3 hPa 0,0 l/m 0 min 0 min 36 W/m 3,2 km/h (1 Bft) 95,74 %
26.06.2022 19:56 20,6 C 19,4 C 16,1 C 70 % 1015,3 hPa 0,0 l/m 0 min 0 min 36 W/m 3,2 km/h (1 Bft) 97,87 %
26.06.2022 19:58 20,6 C 19,4 C 15,6 C 70 % 1015,3 hPa 0,0 l/m 0 min 0 min 38 W/m 3,2 km/h (1 Bft) 95,74 %
26.06.2022 20:00 20,6 C 19,4 C 15,6 C 70 % 1015,3 hPa 0,0 l/m 0 min 0 min 37 W/m 3,2 km/h (1 Bft) 97,87 %
26.06.2022 20:02 20,6 C 19,4 C 15,6 C 70 % 1015,3 hPa 0,0 l/m 0 min 0 min 32 W/m 0,0 km/h (0 Bft) 95,65 %
26.06.2022 20:04 20,5 C 19,4 C 15,6 C 70 % 1015,4 hPa 0,0 l/m 0 min 0 min 26 W/m 3,2 km/h (1 Bft) 95,74 %
26.06.2022 20:06 20,5 C 19,4 C 15,6 C 70 % 1015,4 hPa 0,0 l/m 0 min 0 min 22 W/m 3,2 km/h (1 Bft) 95,74 %
26.06.2022 20:08 20,4 C 19,4 C 15,6 C 71 % 1015,4 hPa 0,0 l/m 0 min 0 min 21 W/m 0,0 km/h (0 Bft) 91,49 %
26.06.2022 20:10 20,4 C 19,4 C 15,6 C 71 % 1015,4 hPa 0,0 l/m 0 min 0 min 21 W/m 0,0 km/h (0 Bft) 97,87 %
26.06.2022 20:12 20,4 C 19,4 C 15,6 C 71 % 1015,4 hPa 0,0 l/m 0 min 0 min 20 W/m 0,0 km/h (0 Bft) 97,87 %
26.06.2022 20:14 20,4 C 19,4 C 15,6 C 71 % 1015,4 hPa 0,0 l/m 0 min 0 min 18 W/m 0,0 km/h (0 Bft) 97,83 %
26.06.2022 20:16 20,4 C 19,4 C 15,6 C 72 % 1015,4 hPa 0,0 l/m 0 min 0 min 17 W/m 0,0 km/h (0 Bft) 95,74 %
26.06.2022 20:18 20,3 C 19,4 C 15,6 C 72 % 1015,4 hPa 0,0 l/m 0 min 0 min 19 W/m 0,0 km/h (0 Bft) 95,74 %
26.06.2022 20:20 20,3 C 18,9 C 15,6 C 72 % 1015,5 hPa 0,0 l/m 0 min 0 min 24 W/m 3,2 km/h (1 Bft) 97,87 %
26.06.2022 20:22 20,3 C 18,9 C 15,6 C 72 % 1015,5 hPa 0,0 l/m 0 min 0 min 25 W/m 3,2 km/h (1 Bft) 97,87 %
26.06.2022 20:24 20,3 C 18,9 C 15,6 C 71 % 1015,5 hPa 0,0 l/m 0 min 0 min 25 W/m 0,0 km/h (0 Bft) 95,74 %
26.06.2022 20:26 20,2 C 18,9 C 15,6 C 72 % 1015,5 hPa 0,0 l/m 0 min 0 min 23 W/m 3,2 km/h (1 Bft) 97,83 %
26.06.2022 20:28 20,2 C 18,9 C 15,6 C 72 % 1015,5 hPa 0,0 l/m 0 min 0 min 20 W/m 0,0 km/h (0 Bft) 97,87 %
26.06.2022 20:30 20,2 C 18,9 C 15,6 C 72 % 1015,6 hPa 0,0 l/m 0 min 0 min 18 W/m 0,0 km/h (0 Bft) 97,87 %
26.06.2022 20:32 20,2 C 18,9 C 15,6 C 73 % 1015,6 hPa 0,0 l/m 0 min 0 min 16 W/m 3,2 km/h (1 Bft) 97,87 %
26.06.2022 20:34 20,2 C 18,9 C 15,6 C 73 % 1015,6 hPa 0,0 l/m 0 min 0 min 14 W/m 0,0 km/h (0 Bft) 97,87 %
26.06.2022 20:36 20,1 C 18,9 C 15,6 C 72 % 1015,6 hPa 0,0 l/m 0 min 0 min 14 W/m 3,2 km/h (1 Bft) 97,87 %
26.06.2022 20:38 20,1 C 18,9 C 15,6 C 72 % 1015,6 hPa 0,0 l/m 0 min 0 min 14 W/m 0,0 km/h (0 Bft) 97,83 %
26.06.2022 20:40 20,1 C 18,9 C 15,6 C 71 % 1015,6 hPa 0,0 l/m 0 min 0 min 14 W/m 3,2 km/h (1 Bft) 97,87 %
26.06.2022 20:42 20,1 C 18,9 C 15,6 C 72 % 1015,6 hPa 0,0 l/m 0 min 0 min 12 W/m 0,0 km/h (0 Bft) 95,74 %
26.06.2022 20:44 20,1 C 18,9 C 15,6 C 71 % 1015,5 hPa 0,0 l/m 0 min 0 min 12 W/m 3,2 km/h (1 Bft) 97,87 %
26.06.2022 20:46 20,1 C 18,9 C 15,6 C 72 % 1015,5 hPa 0,0 l/m 0 min 0 min 12 W/m 0,0 km/h (0 Bft) 97,87 %
26.06.2022 20:48 20,1 C 18,9 C 15,6 C 72 % 1015,5 hPa 0,0 l/m 0 min 0 min 12 W/m 0,0 km/h (0 Bft) 100,00 %
26.06.2022 20:50 20,1 C 18,9 C 15,6 C 72 % 1015,6 hPa 0,0 l/m 0 min 0 min 13 W/m 0,0 km/h (0 Bft) 100,00 %
26.06.2022 20:52 20,1 C 18,9 C 15,6 C 72 % 1015,7 hPa 0,0 l/m 0 min 0 min 14 W/m 3,2 km/h (1 Bft) 100,00 %
26.06.2022 20:54 20,1 C 18,9 C 15,6 C 72 % 1015,7 hPa 0,0 l/m 0 min 0 min 13 W/m 0,0 km/h (0 Bft) 97,87 %
26.06.2022 20:56 20,0 C 18,9 C 15,6 C 71 % 1015,8 hPa 0,0 l/m 0 min 0 min 12 W/m 0,0 km/h (0 Bft) 100,00 %
26.06.2022 20:58 20,0 C 18,9 C 15,6 C 71 % 1015,8 hPa 0,0 l/m 0 min 0 min 9 W/m 0,0 km/h (0 Bft) 100,00 %
26.06.2022 21:00 20,0 C 18,9 C 15,6 C 70 % 1015,9 hPa 0,0 l/m 0 min 0 min 7 W/m 0,0 km/h (0 Bft) 97,83 %
26.06.2022 21:02 20,0 C 19,4 C 15,6 C 70 % 1015,9 hPa 0,0 l/m 0 min 0 min 7 W/m 3,2 km/h (1 Bft) 95,74 %
26.06.2022 21:04 20,0 C 18,9 C 15,6 C 70 % 1015,9 hPa 0,0 l/m 0 min 0 min 7 W/m 3,2 km/h (1 Bft) 100,00 %
26.06.2022 21:06 20,0 C 18,9 C 15,6 C 71 % 1015,8 hPa 0,0 l/m 0 min 0 min 9 W/m 3,2 km/h (1 Bft) 100,00 %
26.06.2022 21:08 20,0 C 18,9 C 15,6 C 73 % 1015,8 hPa 0,0 l/m 0 min 0 min 9 W/m 0,0 km/h (0 Bft) 100,00 %
26.06.2022 21:10 20,1 C 18,9 C 15,6 C 74 % 1015,9 hPa 0,0 l/m 0 min 0 min 9 W/m 3,2 km/h (1 Bft) 97,87 %
26.06.2022 21:12 20,1 C 18,9 C 15,6 C 74 % 1015,9 hPa 0,0 l/m 0 min 2 min 9 W/m 0,0 km/h (0 Bft) 95,74 %
26.06.2022 21:14 20,0 C 18,9 C 15,6 C 74 % 1015,9 hPa 0,0 l/m 0 min 2 min 7 W/m 3,2 km/h (1 Bft) 97,83 %
26.06.2022 21:16 20,1 C 18,9 C 15,6 C 75 % 1015,9 hPa 0,0 l/m 0 min 2 min 7 W/m 3,2 km/h (1 Bft) 97,87 %
26.06.2022 21:18 20,0 C 18,9 C 15,6 C 76 % 1015,9 hPa 0,0 l/m 0 min 0 min 7 W/m 3,2 km/h (1 Bft) 97,87 %
26.06.2022 21:20 19,9 C 18,9 C 15,6 C 75 % 1015,8 hPa 0,0 l/m 0 min 0 min 7 W/m 3,2 km/h (1 Bft) 95,74 %
26.06.2022 21:22 19,8 C 18,9 C 15,0 C 76 % 1015,8 hPa 0,0 l/m 0 min 0 min 7 W/m 0,0 km/h (0 Bft) 97,87 %
26.06.2022 21:24 19,8 C 18,9 C 15,0 C 76 % 1015,8 hPa 0,0 l/m 0 min 0 min 7 W/m 0,0 km/h (0 Bft) 97,87 %
26.06.2022 21:26 19,7 C 18,9 C 15,0 C 76 % 1015,8 hPa 0,0 l/m 0 min 0 min 5 W/m 0,0 km/h (0 Bft) 97,83 %
26.06.2022 21:28 19,7 C 18,3 C 15,0 C 76 % 1015,8 hPa 0,0 l/m 0 min 0 min 5 W/m 0,0 km/h (0 Bft) 97,87 %
26.06.2022 21:30 19,6 C 18,3 C 15,0 C 75 % 1015,8 hPa 0,0 l/m 0 min 0 min 1 W/m 0,0 km/h (0 Bft) 97,87 %
26.06.2022 21:32 19,6 C 18,3 C 15,0 C 75 % 1015,8 hPa 0,0 l/m 0 min 0 min 0 W/m 0,0 km/h (0 Bft) 97,87 %
26.06.2022 21:34 19,5 C 18,3 C 15,0 C 75 % 1015,7 hPa 0,0 l/m 0 min 0 min 0 W/m 0,0 km/h (0 Bft) 97,87 %
26.06.2022 21:36 19,5 C 18,3 C 15,0 C 75 % 1015,7 hPa 0,0 l/m 0 min 0 min 4 W/m 3,2 km/h (1 Bft) 97,87 %
26.06.2022 21:38 19,5 C 18,3 C 15,0 C 76 % 1015,7 hPa 0,0 l/m 0 min 0 min 0 W/m 3,2 km/h (1 Bft) 97,83 %
26.06.2022 21:40 19,4 C 18,3 C 15,0 C 76 % 1015,7 hPa 0,0 l/m 0 min 0 min 0 W/m 6,4 km/h (2 Bft) 97,87 %
26.06.2022 21:42 19,4 C 18,3 C 15,0 C 76 % 1015,7 hPa 0,0 l/m 0 min 0 min 0 W/m 3,2 km/h (1 Bft) 97,87 %
26.06.2022 21:44 19,3 C 18,3 C 15,0 C 76 % 1015,6 hPa 0,0 l/m 0 min 0 min 0 W/m 3,2 km/h (1 Bft) 100,00 %
26.06.2022 21:46 19,3 C 18,3 C 15,0 C 76 % 1015,7 hPa 0,0 l/m 0 min 0 min 0 W/m 3,2 km/h (1 Bft) 100,00 %
26.06.2022 21:48 19,3 C 18,3 C 15,0 C 77 % 1015,7 hPa 0,0 l/m 0 min 0 min 0 W/m 0,0 km/h (0 Bft) 100,00 %
26.06.2022 21:50 19,3 C 18,3 C 15,0 C 77 % 1015,7 hPa 0,0 l/m 0 min 0 min 0 W/m 3,2 km/h (1 Bft) 100,00 %
26.06.2022 21:52 19,2 C 18,3 C 15,0 C 77 % 1015,8 hPa 0,0 l/m 0 min 0 min 0 W/m 0,0 km/h (0 Bft) 100,00 %
26.06.2022 21:54 19,2 C 18,3 C 15,0 C 77 % 1015,8 hPa 0,0 l/m 0 min 0 min 0 W/m 0,0 km/h (0 Bft) 100,00 %
26.06.2022 21:56 19,2 C 18,3 C 15,0 C 77 % 1015,8 hPa 0,0 l/m 0 min 0 min 0 W/m 0,0 km/h (0 Bft) 100,00 %
26.06.2022 21:58 19,2 C 18,3 C 15,0 C 77 % 1015,9 hPa 0,0 l/m 0 min 0 min 0 W/m 0,0 km/h (0 Bft) 97,87 %
26.06.2022 22:00 19,2 C 18,3 C 15,0 C 77 % 1015,9 hPa 0,0 l/m 0 min 0 min 0 W/m 0,0 km/h (0 Bft) 100,00 %
26.06.2022 22:02 19,2 C 18,3 C 14,4 C 77 % 1015,9 hPa 0,0 l/m 0 min 0 min 0 W/m 0,0 km/h (0 Bft) 97,87 %
26.06.2022 22:04 19,2 C 17,8 C 14,4 C 78 % 1016,0 hPa 0,0 l/m 0 min 0 min 0 W/m 0,0 km/h (0 Bft) 97,87 %
26.06.2022 22:06 19,2 C 17,8 C 14,4 C 78 % 1015,9 hPa 0,0 l/m 0 min 0 min 0 W/m 0,0 km/h (0 Bft) 97,87 %
26.06.2022 22:08 19,2 C 17,8 C 14,4 C 79 % 1015,8 hPa 0,0 l/m 0 min 0 min 0 W/m 0,0 km/h (0 Bft) 97,87 %
26.06.2022 22:10 19,2 C 17,8 C 14,4 C 79 % 1015,7 hPa 0,0 l/m 0 min 0 min 0 W/m 0,0 km/h (0 Bft) 100,00 %
26.06.2022 22:12 19,2 C 17,8 C 14,4 C 79 % 1015,6 hPa 0,0 l/m 0 min 0 min 0 W/m 0,0 km/h (0 Bft) 97,83 %
26.06.2022 22:14 19,2 C 17,8 C 14,4 C 78 % 1015,6 hPa 0,0 l/m 0 min 0 min 0 W/m 3,2 km/h (1 Bft) 100,00 %
26.06.2022 22:16 19,2 C 17,8 C 14,4 C 78 % 1015,6 hPa 0,0 l/m 0 min 0 min 0 W/m 3,2 km/h (1 Bft) 97,87 %
26.06.2022 22:18 19,2 C 17,8 C 14,4 C 78 % 1015,6 hPa 0,0 l/m 0 min 0 min 0 W/m 3,2 km/h (1 Bft) 97,87 %
26.06.2022 22:20 19,2 C 17,8 C 14,4 C 78 % 1015,6 hPa 0,0 l/m 0 min 0 min 0 W/m 3,2 km/h (1 Bft) 97,87 %
26.06.2022 22:22 19,1 C 17,8 C 14,4 C 78 % 1015,7 hPa 0,0 l/m 0 min 0 min 0 W/m 0,0 km/h (0 Bft) 97,87 %
26.06.2022 22:24 19,1 C 17,8 C 14,4 C 78 % 1015,8 hPa 0,0 l/m 0 min 0 min 0 W/m 0,0 km/h (0 Bft) 95,65 %
26.06.2022 22:26 19,1 C 17,8 C 14,4 C 79 % 1015,8 hPa 0,0 l/m 0 min 0 min 0 W/m 0,0 km/h (0 Bft) 97,87 %
26.06.2022 22:28 19,1 C 17,8 C 14,4 C 79 % 1015,8 hPa 0,0 l/m 0 min 0 min 0 W/m 0,0 km/h (0 Bft) 97,87 %
26.06.2022 22:30 19,1 C 17,8 C 14,4 C 79 % 1015,7 hPa 0,0 l/m 0 min 0 min 0 W/m 0,0 km/h (0 Bft) 97,87 %
26.06.2022 22:32 19,1 C 17,8 C 14,4 C 79 % 1015,6 hPa 0,0 l/m 0 min 0 min 0 W/m 0,0 km/h (0 Bft) 97,87 %
26.06.2022 22:34 19,1 C 17,8 C 14,4 C 79 % 1015,6 hPa 0,0 l/m 0 min 0 min 0 W/m 3,2 km/h (1 Bft) 97,87 %
26.06.2022 22:36 19,0 C 17,8 C 13,9 C 80 % 1015,6 hPa 0,0 l/m 0 min 0 min 0 W/m 3,2 km/h (1 Bft) 95,65 %
26.06.2022 22:38 18,9 C 17,8 C 13,9 C 80 % 1015,7 hPa 0,0 l/m 0 min 0 min 0 W/m 3,2 km/h (1 Bft) 97,87 %
26.06.2022 22:40 18,9 C 17,8 C 13,9 C 81 % 1015,7 hPa 0,0 l/m 0 min 0 min 0 W/m 0,0 km/h (0 Bft) 95,74 %
26.06.2022 22:42 18,9 C 17,8 C 13,9 C 81 % 1015,7 hPa 0,0 l/m 0 min 0 min 0 W/m 0,0 km/h (0 Bft) 97,87 %
26.06.2022 22:44 18,8 C 17,8 C 13,9 C 82 % 1015,7 hPa 0,0 l/m 0 min 0 min 0 W/m 0,0 km/h (0 Bft) 95,74 %
26.06.2022 22:46 18,8 C 17,8 C 13,9 C 82 % 1015,6 hPa 0,0 l/m 0 min 0 min 0 W/m 0,0 km/h (0 Bft) 97,87 %
26.06.2022 22:48 18,8 C 17,8 C 14,4 C 82 % 1015,6 hPa 0,0 l/m 0 min 0 min 0 W/m 0,0 km/h (0 Bft) 97,87 %
26.06.2022 22:50 18,8 C 17,8 C 14,4 C 82 % 1015,6 hPa 0,0 l/m 0 min 0 min 0 W/m 0,0 km/h (0 Bft) 95,65 %
26.06.2022 22:52 18,8 C 17,8 C 14,4 C 82 % 1015,5 hPa 0,0 l/m 0 min 0 min 0 W/m 0,0 km/h (0 Bft) 93,62 %
26.06.2022 22:54 18,7 C 17,8 C 14,4 C 82 % 1015,5 hPa 0,0 l/m 0 min 0 min 0 W/m 0,0 km/h (0 Bft) 95,74 %
26.06.2022 22:56 18,7 C 17,8 C 14,4 C 82 % 1015,4 hPa 0,0 l/m 0 min 0 min 0 W/m 0,0 km/h (0 Bft) 89,36 %
26.06.2022 22:58 18,7 C 17,8 C 14,4 C 82 % 1015,4 hPa 0,0 l/m 0 min 0 min 0 W/m 0,0 km/h (0 Bft) 95,74 %
26.06.2022 23:00 18,6 C 17,8 C 14,4 C 82 % 1015,5 hPa 0,0 l/m 0 min 0 min 0 W/m 0,0 km/h (0 Bft) 93,48 %
26.06.2022 23:02 18,6 C 17,8 C 14,4 C 81 % 1015,5 hPa 0,0 l/m 0 min 0 min 0 W/m 0,0 km/h (0 Bft) 95,74 %
26.06.2022 23:04 18,6 C 17,8 C 14,4 C 81 % 1015,6 hPa 0,0 l/m 0 min 0 min 0 W/m 0,0 km/h (0 Bft) 91,49 %
26.06.2022 23:06 18,6 C 17,8 C 14,4 C 81 % 1015,6 hPa 0,0 l/m 0 min 0 min 0 W/m 0,0 km/h (0 Bft) 95,74 %
26.06.2022 23:08 18,6 C 17,8 C 14,4 C 81 % 1015,6 hPa 0,0 l/m 0 min 0 min 0 W/m 0,0 km/h (0 Bft) 93,62 %
26.06.2022 23:10 18,6 C 17,8 C 14,4 C 81 % 1015,6 hPa 0,0 l/m 0 min 0 min 0 W/m 0,0 km/h (0 Bft) 91,49 %
26.06.2022 23:12 18,6 C 17,8 C 14,4 C 81 % 1015,5 hPa 0,0 l/m 0 min 0 min 0 W/m 0,0 km/h (0 Bft) 93,62 %
26.06.2022 23:14 18,6 C 17,8 C 14,4 C 81 % 1015,6 hPa 0,0 l/m 0 min 0 min 0 W/m 0,0 km/h (0 Bft) 91,30 %
26.06.2022 23:16 18,6 C 17,8 C 14,4 C 81 % 1015,6 hPa 0,0 l/m 0 min 0 min 0 W/m 0,0 km/h (0 Bft) 95,74 %
26.06.2022 23:18 18,6 C 17,8 C 14,4 C 82 % 1015,6 hPa 0,0 l/m 0 min 0 min 0 W/m 0,0 km/h (0 Bft) 93,62 %
26.06.2022 23:20 18,6 C 17,8 C 14,4 C 82 % 1015,5 hPa 0,0 l/m 0 min 0 min 0 W/m 0,0 km/h (0 Bft) 93,62 %
26.06.2022 23:22 18,6 C 17,8 C 14,4 C 82 % 1015,5 hPa 0,0 l/m 0 min 0 min 0 W/m 0,0 km/h (0 Bft) 95,74 %
26.06.2022 23:24 18,6 C 17,8 C 14,4 C 83 % 1015,4 hPa 0,0 l/m 0 min 0 min 0 W/m 0,0 km/h (0 Bft) 95,65 %
26.06.2022 23:26 18,6 C 17,8 C 14,4 C 83 % 1015,4 hPa 0,0 l/m 0 min 0 min 0 W/m 0,0 km/h (0 Bft) 95,74 %
26.06.2022 23:28 18,6 C 17,8 C 14,4 C 83 % 1015,4 hPa 0,0 l/m 0 min 0 min 0 W/m 0,0 km/h (0 Bft) 95,74 %
26.06.2022 23:30 18,6 C 17,8 C 14,4 C 83 % 1015,4 hPa 0,0 l/m 0 min 0 min 0 W/m 0,0 km/h (0 Bft) 95,74 %
26.06.2022 23:32 18,6 C 17,8 C 14,4 C 82 % 1015,4 hPa 0,0 l/m 0 min 0 min 0 W/m 0,0 km/h (0 Bft) 93,62 %
26.06.2022 23:34 18,6 C 17,8 C 14,4 C 82 % 1015,4 hPa 0,0 l/m 0 min 0 min 0 W/m 0,0 km/h (0 Bft) 95,74 %
26.06.2022 23:36 18,5 C 17,8 C 14,4 C 82 % 1015,4 hPa 0,0 l/m 0 min 0 min 0 W/m 0,0 km/h (0 Bft) 93,48 %
26.06.2022 23:38 18,5 C 17,8 C 14,4 C 82 % 1015,3 hPa 0,0 l/m 0 min 0 min 0 W/m 0,0 km/h (0 Bft) 100,00 %
26.06.2022 23:40 18,5 C 17,8 C 14,4 C 81 % 1015,3 hPa 0,0 l/m 0 min 0 min 0 W/m 0,0 km/h (0 Bft) 100,00 %
26.06.2022 23:42 18,4 C 17,8 C 14,4 C 81 % 1015,3 hPa 0,0 l/m 0 min 0 min 0 W/m 0,0 km/h (0 Bft) 100,00 %
26.06.2022 23:44 18,5 C 17,8 C 14,4 C 82 % 1015,4 hPa 0,0 l/m 0 min 0 min 0 W/m 0,0 km/h (0 Bft) 97,87 %
26.06.2022 23:46 18,5 C 17,8 C 14,4 C 81 % 1015,3 hPa 0,0 l/m 0 min 0 min 0 W/m 0,0 km/h (0 Bft) 100,00 %
26.06.2022 23:48 18,4 C 17,8 C 14,4 C 81 % 1015,4 hPa 0,0 l/m 0 min 0 min 0 W/m 0,0 km/h (0 Bft) 100,00 %
26.06.2022 23:50 18,4 C 17,8 C 14,4 C 81 % 1015,4 hPa 0,0 l/m 0 min 0 min 0 W/m 0,0 km/h (0 Bft) 100,00 %
26.06.2022 23:52 18,5 C 17,8 C 14,4 C 82 % 1015,3 hPa 0,0 l/m 0 min 0 min 0 W/m 0,0 km/h (0 Bft) 97,87 %
26.06.2022 23:54 18,5 C 17,8 C 14,4 C 82 % 1015,3 hPa 0,0 l/m 0 min 0 min 0 W/m 0,0 km/h (0 Bft) 100,00 %
26.06.2022 23:56 18,5 C 17,8 C 14,4 C 81 % 1015,3 hPa 0,0 l/m 0 min 0 min 0 W/m 0,0 km/h (0 Bft) 100,00 %
26.06.2022 23:58 18,4 C 17,8 C 14,4 C 81 % 1015,2 hPa 0,0 l/m 0 min 0 min 0 W/m 0,0 km/h (0 Bft) 100,00 %
_ Min-Zeit 06:58 04:34 06:32 12:10 00:00 - - - - 02:16 22:56
Minimum _ 16,1 C 15,6 C 11,7 C 63 % 1011,2 hPa - - - - 0,0 km/h (0 Bft) 89,36 %
_ Max-Zeit 11:56 09:42 11:50 03:38 14:44 00:48 12:08 00:32 11:50 00:36 00:48
Maximum _ 22,2 C 25,0 C 22,2 C 98 % 1017,2 hPa 0,8 l/m 4 min 2 min 977 W/m 19,3 km/h
S-SO (3 Bft)
100,00 %
Durchschnitt _ 19,1 C 19,0 C 15,4 C 82 % 1015,1 hPa #6,8 l/m #3:56 h #2:36 h 254 W/m 5,7 km/h (1 Bft) 97,50 %
© 2022 W. Hausmann